Wetterdaten: Mittwoch, 03.07.2013
Datum Zeit Temp. Aussen +5cm Feuchte Auss Luftdruck Regen Sonnenschein Regendauer UV Solar Windben
03.07.2013 00:00 18,7 C 15,7 C 74 % 1008,6 hPa 0,0 l/m 0 min 0 min 0,0 UV-I 0 W/m 0,0 km/h (0 Bft)
03.07.2013 00:02 18,7 C 15,7 C 75 % 1008,6 hPa 0,0 l/m 0 min 0 min 0,0 UV-I 0 W/m 0,0 km/h (0 Bft)
03.07.2013 00:06 18,6 C 15,7 C 74 % 1008,5 hPa 0,0 l/m 0 min 0 min 0,0 UV-I 0 W/m 0,0 km/h (0 Bft)
03.07.2013 00:08 18,6 C 15,7 C 75 % 1008,5 hPa 0,0 l/m 0 min 0 min 0,0 UV-I 0 W/m 0,0 km/h (0 Bft)
03.07.2013 00:10 18,5 C 15,7 C 75 % 1008,5 hPa 0,0 l/m 0 min 0 min 0,0 UV-I 0 W/m 0,0 km/h (0 Bft)
03.07.2013 00:12 18,5 C 15,7 C 75 % 1008,4 hPa 0,0 l/m 0 min 0 min 0,0 UV-I 0 W/m 0,0 km/h (0 Bft)
03.07.2013 00:14 18,4 C 15,7 C 76 % 1008,4 hPa 0,0 l/m 0 min 0 min 0,0 UV-I 0 W/m 0,0 km/h (0 Bft)
03.07.2013 00:16 18,4 C 15,7 C 76 % 1008,4 hPa 0,0 l/m 0 min 0 min 0,0 UV-I 0 W/m 0,0 km/h (0 Bft)
03.07.2013 00:18 18,4 C 15,7 C 76 % 1008,4 hPa 0,0 l/m 0 min 0 min 0,0 UV-I 0 W/m 0,0 km/h (0 Bft)
03.07.2013 00:20 18,4 C 15,7 C 76 % 1008,3 hPa 0,0 l/m 0 min 0 min 0,0 UV-I 0 W/m 0,0 km/h (0 Bft)
03.07.2013 00:22 18,3 C 15,7 C 76 % 1008,4 hPa 0,0 l/m 0 min 0 min 0,0 UV-I 0 W/m 0,0 km/h (0 Bft)
03.07.2013 00:24 18,3 C 16,2 C 76 % 1008,3 hPa 0,0 l/m 0 min 0 min 0,0 UV-I 0 W/m 0,0 km/h (0 Bft)
03.07.2013 00:26 18,3 C 15,7 C 76 % 1008,3 hPa 0,0 l/m 0 min 0 min 0,0 UV-I 0 W/m 0,0 km/h (0 Bft)
03.07.2013 00:28 18,3 C 16,2 C 76 % 1008,3 hPa 0,0 l/m 0 min 0 min 0,0 UV-I 0 W/m 0,0 km/h (0 Bft)
03.07.2013 00:30 18,3 C 16,2 C 76 % 1008,3 hPa 0,0 l/m 0 min 0 min 0,0 UV-I 0 W/m 0,0 km/h (0 Bft)
03.07.2013 00:32 18,3 C 16,2 C 77 % 1008,2 hPa 0,0 l/m 0 min 0 min 0,0 UV-I 0 W/m 0,0 km/h (0 Bft)
03.07.2013 00:34 18,3 C 16,2 C 76 % 1008,3 hPa 0,0 l/m 0 min 0 min 0,0 UV-I 0 W/m 0,0 km/h (0 Bft)
03.07.2013 00:36 18,2 C 16,2 C 77 % 1008,3 hPa 0,0 l/m 0 min 0 min 0,0 UV-I 0 W/m 0,0 km/h (0 Bft)
03.07.2013 00:38 18,2 C 16,2 C 77 % 1008,2 hPa 0,0 l/m 0 min 0 min 0,0 UV-I 0 W/m 0,0 km/h (0 Bft)
03.07.2013 00:40 18,2 C 16,2 C 77 % 1008,2 hPa 0,0 l/m 0 min 0 min 0,0 UV-I 0 W/m 0,0 km/h (0 Bft)
03.07.2013 00:42 18,2 C 16,2 C 77 % 1008,2 hPa 0,0 l/m 0 min 0 min 0,0 UV-I 0 W/m 0,0 km/h (0 Bft)
03.07.2013 00:44 18,2 C 16,2 C 77 % 1008,2 hPa 0,0 l/m 0 min 0 min 0,0 UV-I 0 W/m 0,0 km/h (0 Bft)
03.07.2013 00:46 18,2 C 16,2 C 77 % 1008,2 hPa 0,0 l/m 0 min 0 min 0,0 UV-I 0 W/m 0,0 km/h (0 Bft)
03.07.2013 00:48 18,2 C 16,2 C 77 % 1008,2 hPa 0,0 l/m 0 min 0 min 0,0 UV-I 0 W/m 0,0 km/h (0 Bft)
03.07.2013 00:50 18,2 C 16,2 C 77 % 1008,2 hPa 0,0 l/m 0 min 0 min 0,0 UV-I 0 W/m 0,0 km/h (0 Bft)
03.07.2013 00:52 18,2 C 16,8 C 77 % 1008,1 hPa 0,0 l/m 0 min 0 min 0,0 UV-I 0 W/m 0,0 km/h (0 Bft)
03.07.2013 00:54 18,2 C 16,8 C 77 % 1008,0 hPa 0,0 l/m 0 min 0 min 0,0 UV-I 0 W/m 0,0 km/h (0 Bft)
03.07.2013 00:56 18,2 C 16,8 C 77 % 1008,1 hPa 0,0 l/m 0 min 0 min 0,0 UV-I 0 W/m 0,0 km/h (0 Bft)
03.07.2013 00:58 18,2 C 16,8 C 77 % 1008,1 hPa 0,0 l/m 0 min 0 min 0,0 UV-I 0 W/m 0,0 km/h (0 Bft)
03.07.2013 01:00 18,2 C 16,8 C 77 % 1008,1 hPa 0,0 l/m 0 min 0 min 0,0 UV-I 0 W/m 0,0 km/h (0 Bft)
03.07.2013 01:02 18,2 C 16,8 C 77 % 1008,1 hPa 0,0 l/m 0 min 0 min 0,0 UV-I 0 W/m 2,6 km/h (1 Bft)
03.07.2013 01:06 18,2 C 16,8 C 77 % 1008,1 hPa 0,0 l/m 0 min 0 min 0,0 UV-I 0 W/m 2,6 km/h (1 Bft)
03.07.2013 01:08 18,2 C 16,8 C 78 % 1008,0 hPa 0,0 l/m 0 min 0 min 0,0 UV-I 0 W/m 0,0 km/h (0 Bft)
03.07.2013 01:10 18,2 C 16,8 C 78 % 1008,0 hPa 0,0 l/m 0 min 0 min 0,0 UV-I 0 W/m 0,0 km/h (0 Bft)
03.07.2013 01:12 18,2 C 16,8 C 78 % 1008,0 hPa 0,0 l/m 0 min 0 min 0,0 UV-I 0 W/m 0,0 km/h (0 Bft)
03.07.2013 01:14 18,2 C 16,8 C 78 % 1007,9 hPa 0,0 l/m 0 min 0 min 0,0 UV-I 0 W/m 0,0 km/h (0 Bft)
03.07.2013 01:16 18,2 C 16,2 C 78 % 1007,9 hPa 0,0 l/m 0 min 0 min 0,0 UV-I 0 W/m 0,0 km/h (0 Bft)
03.07.2013 01:18 18,2 C 16,8 C 78 % 1007,9 hPa 0,0 l/m 0 min 0 min 0,0 UV-I 0 W/m 0,0 km/h (0 Bft)
03.07.2013 01:20 18,2 C 16,2 C 78 % 1007,9 hPa 0,0 l/m 0 min 0 min 0,0 UV-I 0 W/m 0,0 km/h (0 Bft)
03.07.2013 01:22 18,2 C 16,2 C 78 % 1007,8 hPa 0,0 l/m 0 min 0 min 0,0 UV-I 0 W/m 0,0 km/h (0 Bft)
03.07.2013 01:24 18,2 C 16,2 C 78 % 1007,8 hPa 0,0 l/m 0 min 0 min 0,0 UV-I 0 W/m 0,0 km/h (0 Bft)
03.07.2013 01:26 18,2 C 16,2 C 78 % 1007,7 hPa 0,0 l/m 0 min 0 min 0,0 UV-I 0 W/m 0,0 km/h (0 Bft)
03.07.2013 01:28 18,2 C 16,2 C 78 % 1007,7 hPa 0,0 l/m 0 min 0 min 0,0 UV-I 0 W/m 0,0 km/h (0 Bft)
03.07.2013 01:30 18,2 C 16,8 C 78 % 1007,6 hPa 0,0 l/m 0 min 0 min 0,0 UV-I 0 W/m 5,1 km/h (1 Bft)
03.07.2013 01:32 18,2 C 16,8 C 78 % 1007,6 hPa 0,0 l/m 0 min 0 min 0,0 UV-I 0 W/m 2,6 km/h (1 Bft)
03.07.2013 01:34 18,2 C 16,8 C 78 % 1007,6 hPa 0,0 l/m 0 min 0 min 0,0 UV-I 0 W/m 2,6 km/h (1 Bft)
03.07.2013 01:36 18,2 C 16,8 C 78 % 1007,6 hPa 0,0 l/m 0 min 0 min 0,0 UV-I 0 W/m 2,6 km/h (1 Bft)
03.07.2013 01:38 18,2 C 16,8 C 78 % 1007,5 hPa 0,0 l/m 0 min 0 min 0,0 UV-I 0 W/m 5,1 km/h (1 Bft)
03.07.2013 01:40 18,2 C 16,8 C 78 % 1007,5 hPa 0,0 l/m 0 min 0 min 0,0 UV-I 0 W/m 5,1 km/h (1 Bft)
03.07.2013 01:42 18,2 C 16,8 C 78 % 1007,6 hPa 0,0 l/m 0 min 0 min 0,0 UV-I 0 W/m 7,7 km/h (2 Bft)
03.07.2013 01:44 18,2 C 16,8 C 78 % 1007,6 hPa 0,0 l/m 0 min 0 min 0,0 UV-I 0 W/m 0,0 km/h (0 Bft)
03.07.2013 01:46 18,2 C 16,8 C 79 % 1007,6 hPa 0,0 l/m 0 min 0 min 0,0 UV-I 0 W/m 10,3 km/h (2 Bft)
03.07.2013 01:48 18,2 C 16,8 C 79 % 1007,6 hPa 0,0 l/m 0 min 0 min 0,0 UV-I 0 W/m 10,3 km/h (2 Bft)
03.07.2013 01:50 18,2 C 16,8 C 79 % 1007,5 hPa 0,0 l/m 0 min 0 min 0,0 UV-I 0 W/m 7,7 km/h (2 Bft)
03.07.2013 01:52 18,2 C 16,8 C 79 % 1007,5 hPa 0,0 l/m 0 min 0 min 0,0 UV-I 0 W/m 7,7 km/h (2 Bft)
03.07.2013 01:54 18,2 C 16,2 C 79 % 1007,5 hPa 0,0 l/m 0 min 2 min 0,0 UV-I 0 W/m 7,7 km/h (2 Bft)
03.07.2013 01:56 18,2 C 16,2 C 79 % 1007,4 hPa 0,0 l/m 0 min 2 min 0,0 UV-I 0 W/m 5,1 km/h (1 Bft)
03.07.2013 01:58 18,2 C 16,8 C 79 % 1007,5 hPa 0,0 l/m 0 min 0 min 0,0 UV-I 0 W/m 2,6 km/h (1 Bft)
03.07.2013 02:00 18,2 C 16,2 C 79 % 1007,4 hPa 0,0 l/m 0 min 2 min 0,0 UV-I 0 W/m 0,0 km/h (0 Bft)
03.07.2013 02:02 18,2 C 16,2 C 79 % 1007,4 hPa 0,0 l/m 0 min 2 min 0,0 UV-I 0 W/m 7,7 km/h (2 Bft)
03.07.2013 02:06 18,2 C 16,2 C 80 % 1007,2 hPa 0,0 l/m 0 min 2 min 0,0 UV-I 0 W/m 7,7 km/h (2 Bft)
03.07.2013 02:08 18,2 C 16,2 C 80 % 1007,1 hPa 0,0 l/m 0 min 0 min 0,0 UV-I 0 W/m 10,3 km/h (2 Bft)
03.07.2013 02:10 18,2 C 16,2 C 80 % 1007,2 hPa 0,0 l/m 0 min 0 min 0,0 UV-I 0 W/m 12,9 km/h (3 Bft)
03.07.2013 02:12 18,2 C 16,2 C 81 % 1007,1 hPa 0,0 l/m 0 min 0 min 0,0 UV-I 0 W/m 12,9 km/h (3 Bft)
03.07.2013 02:14 18,2 C 16,2 C 81 % 1007,0 hPa 0,0 l/m 0 min 2 min 0,0 UV-I 0 W/m 7,7 km/h (2 Bft)
03.07.2013 02:16 18,2 C 16,2 C 81 % 1007,0 hPa 0,0 l/m 0 min 2 min 0,0 UV-I 0 W/m 7,7 km/h (2 Bft)
03.07.2013 02:18 18,2 C 16,2 C 81 % 1007,0 hPa 0,0 l/m 0 min 2 min 0,0 UV-I 0 W/m 7,7 km/h (2 Bft)
03.07.2013 02:20 18,2 C 16,2 C 81 % 1006,9 hPa 0,0 l/m 0 min 0 min 0,0 UV-I 0 W/m 10,3 km/h (2 Bft)
03.07.2013 02:22 18,2 C 16,2 C 81 % 1006,9 hPa 0,0 l/m 0 min 0 min 0,0 UV-I 0 W/m 2,6 km/h (1 Bft)
03.07.2013 02:24 18,2 C 16,2 C 82 % 1006,9 hPa 0,0 l/m 0 min 2 min 0,0 UV-I 0 W/m 7,7 km/h (2 Bft)
03.07.2013 02:26 18,2 C 16,2 C 82 % 1006,9 hPa 0,0 l/m 0 min 2 min 0,0 UV-I 0 W/m 7,7 km/h (2 Bft)
03.07.2013 02:28 18,2 C 15,7 C 82 % 1006,9 hPa 0,0 l/m 0 min 2 min 0,0 UV-I 0 W/m 7,7 km/h (2 Bft)
03.07.2013 02:30 18,2 C 15,7 C 83 % 1006,9 hPa 0,0 l/m 0 min 2 min 0,0 UV-I 0 W/m 7,7 km/h (2 Bft)
03.07.2013 02:32 18,2 C 15,7 C 83 % 1006,9 hPa 0,0 l/m 0 min 2 min 0,0 UV-I 0 W/m 0,0 km/h (0 Bft)
03.07.2013 02:34 18,2 C 15,7 C 83 % 1006,9 hPa 0,0 l/m 0 min 2 min 0,0 UV-I 0 W/m 0,0 km/h (0 Bft)
03.07.2013 02:36 18,2 C 15,7 C 83 % 1006,9 hPa 0,0 l/m 0 min 0 min 0,0 UV-I 0 W/m 0,0 km/h (0 Bft)
03.07.2013 02:38 18,2 C 15,7 C 83 % 1006,8 hPa 0,0 l/m 0 min 2 min 0,0 UV-I 0 W/m 5,1 km/h (1 Bft)
03.07.2013 02:40 18,2 C 15,7 C 84 % 1006,8 hPa 0,0 l/m 0 min 2 min 0,0 UV-I 0 W/m 2,6 km/h (1 Bft)
03.07.2013 02:42 18,2 C 15,7 C 84 % 1006,8 hPa 0,0 l/m 0 min 2 min 0,0 UV-I 0 W/m 0,0 km/h (0 Bft)
03.07.2013 02:44 18,2 C 15,7 C 84 % 1006,8 hPa 0,0 l/m 0 min 2 min 0,0 UV-I 0 W/m 2,6 km/h (1 Bft)
03.07.2013 02:46 18,2 C 15,7 C 84 % 1006,8 hPa 0,0 l/m 0 min 0 min 0,0 UV-I 0 W/m 0,0 km/h (0 Bft)
03.07.2013 02:48 18,2 C 15,7 C 85 % 1006,8 hPa 0,0 l/m 0 min 0 min 0,0 UV-I 0 W/m 2,6 km/h (1 Bft)
03.07.2013 02:50 18,1 C 15,7 C 85 % 1006,8 hPa 0,0 l/m 0 min 0 min 0,0 UV-I 0 W/m 0,0 km/h (0 Bft)
03.07.2013 02:52 18,1 C 15,7 C 85 % 1006,8 hPa 0,0 l/m 0 min 2 min 0,0 UV-I 0 W/m 0,0 km/h (0 Bft)
03.07.2013 02:54 18,1 C 15,7 C 85 % 1006,8 hPa 0,0 l/m 0 min 2 min 0,0 UV-I 0 W/m 0,0 km/h (0 Bft)
03.07.2013 02:56 18,1 C 15,7 C 85 % 1006,8 hPa 0,0 l/m 0 min 0 min 0,0 UV-I 0 W/m 0,0 km/h (0 Bft)
03.07.2013 02:58 18,1 C 15,7 C 85 % 1006,8 hPa 0,0 l/m 0 min 0 min 0,0 UV-I 0 W/m 0,0 km/h (0 Bft)
03.07.2013 03:00 18,1 C 15,7 C 85 % 1006,8 hPa 0,0 l/m 0 min 0 min 0,0 UV-I 0 W/m 0,0 km/h (0 Bft)
03.07.2013 03:02 18,1 C 15,7 C 85 % 1006,8 hPa 0,0 l/m 0 min 0 min 0,0 UV-I 0 W/m 0,0 km/h (0 Bft)
03.07.2013 03:06 18,0 C 15,7 C 85 % 1006,8 hPa 0,0 l/m 0 min 0 min 0,0 UV-I 0 W/m 0,0 km/h (0 Bft)
03.07.2013 03:08 18,1 C 15,7 C 85 % 1006,7 hPa 0,0 l/m 0 min 0 min 0,0 UV-I 0 W/m 0,0 km/h (0 Bft)
03.07.2013 03:10 18,1 C 15,7 C 86 % 1006,6 hPa 0,0 l/m 0 min 0 min 0,0 UV-I 0 W/m 0,0 km/h (0 Bft)
03.07.2013 03:12 18,0 C 15,7 C 86 % 1006,6 hPa 0,0 l/m 0 min 0 min 0,0 UV-I 0 W/m 0,0 km/h (0 Bft)
03.07.2013 03:14 18,0 C 15,7 C 86 % 1006,6 hPa 0,0 l/m 0 min 0 min 0,0 UV-I 0 W/m 0,0 km/h (0 Bft)
03.07.2013 03:16 18,0 C 15,7 C 86 % 1006,5 hPa 0,0 l/m 0 min 0 min 0,0 UV-I 0 W/m 0,0 km/h (0 Bft)
03.07.2013 03:18 17,9 C 15,7 C 86 % 1006,4 hPa 0,0 l/m 0 min 0 min 0,0 UV-I 0 W/m 0,0 km/h (0 Bft)
03.07.2013 03:20 17,9 C 15,7 C 86 % 1006,4 hPa 0,0 l/m 0 min 0 min 0,0 UV-I 0 W/m 0,0 km/h (0 Bft)
03.07.2013 03:22 17,9 C 15,7 C 86 % 1006,4 hPa 0,0 l/m 0 min 0 min 0,0 UV-I 0 W/m 0,0 km/h (0 Bft)
03.07.2013 03:24 17,9 C 15,7 C 86 % 1006,3 hPa 0,0 l/m 0 min 0 min 0,0 UV-I 0 W/m 0,0 km/h (0 Bft)
03.07.2013 03:26 17,9 C 15,7 C 86 % 1006,3 hPa 0,0 l/m 0 min 0 min 0,0 UV-I 0 W/m 0,0 km/h (0 Bft)
03.07.2013 03:28 17,9 C 15,7 C 87 % 1006,3 hPa 0,0 l/m 0 min 0 min 0,0 UV-I 0 W/m 0,0 km/h (0 Bft)
03.07.2013 03:30 17,9 C 15,7 C 87 % 1006,3 hPa 0,0 l/m 0 min 0 min 0,0 UV-I 0 W/m 0,0 km/h (0 Bft)
03.07.2013 03:32 17,9 C 16,2 C 87 % 1006,3 hPa 0,0 l/m 0 min 0 min 0,0 UV-I 0 W/m 0,0 km/h (0 Bft)
03.07.2013 03:34 17,9 C 16,2 C 87 % 1006,3 hPa 0,0 l/m 0 min 0 min 0,0 UV-I 0 W/m 0,0 km/h (0 Bft)
03.07.2013 03:36 17,9 C 16,2 C 87 % 1006,3 hPa 0,0 l/m 0 min 0 min 0,0 UV-I 0 W/m 0,0 km/h (0 Bft)
03.07.2013 03:38 17,9 C 16,2 C 87 % 1006,3 hPa 0,0 l/m 0 min 0 min 0,0 UV-I 0 W/m 2,6 km/h (1 Bft)
03.07.2013 03:40 17,9 C 16,2 C 87 % 1006,3 hPa 0,0 l/m 0 min 0 min 0,0 UV-I 0 W/m 2,6 km/h (1 Bft)
03.07.2013 03:42 17,9 C 16,2 C 87 % 1006,2 hPa 0,0 l/m 0 min 0 min 0,0 UV-I 0 W/m 0,0 km/h (0 Bft)
03.07.2013 03:44 17,9 C 16,2 C 87 % 1006,3 hPa 0,0 l/m 0 min 0 min 0,0 UV-I 0 W/m 2,6 km/h (1 Bft)
03.07.2013 03:46 17,8 C 16,2 C 87 % 1006,3 hPa 0,0 l/m 0 min 0 min 0,0 UV-I 0 W/m 10,3 km/h (2 Bft)
03.07.2013 03:48 17,8 C 16,2 C 88 % 1006,1 hPa 0,0 l/m 0 min 0 min 0,0 UV-I 0 W/m 2,6 km/h (1 Bft)
03.07.2013 03:50 17,8 C 16,2 C 87 % 1006,0 hPa 0,0 l/m 0 min 0 min 0,0 UV-I 0 W/m 2,6 km/h (1 Bft)
03.07.2013 03:52 17,8 C 16,2 C 87 % 1006,0 hPa 0,0 l/m 0 min 0 min 0,0 UV-I 0 W/m 7,7 km/h (2 Bft)
03.07.2013 03:54 17,8 C 16,2 C 87 % 1006,0 hPa 0,0 l/m 0 min 0 min 0,0 UV-I 0 W/m 12,9 km/h (3 Bft)
03.07.2013 03:56 17,8 C 16,2 C 87 % 1006,0 hPa 0,0 l/m 0 min 0 min 0,0 UV-I 0 W/m 5,1 km/h (1 Bft)
03.07.2013 03:58 17,8 C 16,2 C 87 % 1006,0 hPa 0,0 l/m 0 min 0 min 0,0 UV-I 0 W/m 10,3 km/h (2 Bft)
03.07.2013 04:00 17,8 C 16,2 C 87 % 1006,0 hPa 0,0 l/m 0 min 0 min 0,0 UV-I 0 W/m 0,0 km/h (0 Bft)
03.07.2013 04:02 17,8 C 16,2 C 87 % 1006,0 hPa 0,0 l/m 0 min 0 min 0,0 UV-I 0 W/m 2,6 km/h (1 Bft)
03.07.2013 04:06 17,7 C 16,2 C 87 % 1006,0 hPa 0,0 l/m 0 min 0 min 0,0 UV-I 0 W/m 7,7 km/h (2 Bft)
03.07.2013 04:08 17,7 C 16,2 C 87 % 1006,0 hPa 0,0 l/m 0 min 0 min 0,0 UV-I 0 W/m 7,7 km/h (2 Bft)
03.07.2013 04:10 17,8 C 16,2 C 87 % 1006,0 hPa 0,0 l/m 0 min 0 min 0,0 UV-I 0 W/m 7,7 km/h (2 Bft)
03.07.2013 04:12 17,8 C 16,2 C 87 % 1006,0 hPa 0,0 l/m 0 min 0 min 0,0 UV-I 0 W/m 10,3 km/h (2 Bft)
03.07.2013 04:14 17,7 C 16,2 C 88 % 1006,1 hPa 0,0 l/m 0 min 0 min 0,0 UV-I 0 W/m 7,7 km/h (2 Bft)
03.07.2013 04:16 17,8 C 16,2 C 88 % 1006,1 hPa 0,0 l/m 0 min 0 min 0,0 UV-I 0 W/m 10,3 km/h (2 Bft)
03.07.2013 04:18 17,8 C 16,2 C 88 % 1006,1 hPa 0,0 l/m 0 min 0 min 0,0 UV-I 0 W/m 15,4 km/h (3 Bft)
03.07.2013 04:20 17,8 C 16,2 C 88 % 1006,0 hPa 0,0 l/m 0 min 0 min 0,0 UV-I 0 W/m 10,3 km/h (2 Bft)
03.07.2013 04:22 17,8 C 16,2 C 88 % 1006,0 hPa 0,0 l/m 0 min 0 min 0,0 UV-I 0 W/m 10,3 km/h (2 Bft)
03.07.2013 04:24 17,8 C 16,2 C 88 % 1006,0 hPa 0,0 l/m 0 min 0 min 0,0 UV-I 0 W/m 5,1 km/h (1 Bft)
03.07.2013 04:26 17,7 C 16,2 C 88 % 1006,0 hPa 0,0 l/m 0 min 0 min 0,0 UV-I 0 W/m 5,1 km/h (1 Bft)
03.07.2013 04:28 17,7 C 16,2 C 88 % 1006,0 hPa 0,0 l/m 0 min 0 min 0,0 UV-I 0 W/m 7,7 km/h (2 Bft)
03.07.2013 04:30 17,7 C 16,2 C 88 % 1006,1 hPa 0,0 l/m 0 min 0 min 0,0 UV-I 0 W/m 10,3 km/h (2 Bft)
03.07.2013 04:32 17,7 C 16,2 C 88 % 1006,0 hPa 0,0 l/m 0 min 0 min 0,0 UV-I 0 W/m 7,7 km/h (2 Bft)
03.07.2013 04:34 17,7 C 16,2 C 88 % 1006,0 hPa 0,0 l/m 0 min 0 min 0,0 UV-I 0 W/m 7,7 km/h (2 Bft)
03.07.2013 04:36 17,7 C 16,2 C 88 % 1006,0 hPa 0,0 l/m 0 min 0 min 0,0 UV-I 0 W/m 2,6 km/h (1 Bft)
03.07.2013 04:38 17,7 C 16,2 C 89 % 1005,9 hPa 0,0 l/m 0 min 0 min 0,0 UV-I 0 W/m 5,1 km/h (1 Bft)
03.07.2013 04:40 17,7 C 16,2 C 89 % 1005,9 hPa 0,0 l/m 0 min 0 min 0,0 UV-I 0 W/m 7,7 km/h (2 Bft)
03.07.2013 04:42 17,7 C 16,2 C 89 % 1005,8 hPa 0,0 l/m 0 min 0 min 0,0 UV-I 0 W/m 5,1 km/h (1 Bft)
03.07.2013 04:44 17,7 C 16,2 C 89 % 1005,8 hPa 0,0 l/m 0 min 0 min 0,0 UV-I 0 W/m 5,1 km/h (1 Bft)
03.07.2013 04:46 17,7 C 16,2 C 89 % 1005,8 hPa 0,0 l/m 0 min 0 min 0,0 UV-I 0 W/m 7,7 km/h (2 Bft)
03.07.2013 04:48 17,7 C 16,2 C 89 % 1005,8 hPa 0,0 l/m 0 min 0 min 0,0 UV-I 0 W/m 0,0 km/h (0 Bft)
03.07.2013 04:50 17,7 C 16,2 C 89 % 1005,8 hPa 0,0 l/m 0 min 0 min 0,0 UV-I 0 W/m 0,0 km/h (0 Bft)
03.07.2013 04:52 17,7 C 16,2 C 89 % 1005,8 hPa 0,0 l/m 0 min 0 min 0,0 UV-I 0 W/m 2,6 km/h (1 Bft)
03.07.2013 04:54 17,7 C 16,2 C 89 % 1005,8 hPa 0,0 l/m 0 min 0 min 0,0 UV-I 0 W/m 12,9 km/h (3 Bft)
03.07.2013 04:56 17,7 C 16,2 C 89 % 1005,8 hPa 0,0 l/m 0 min 0 min 0,0 UV-I 0 W/m 5,1 km/h (1 Bft)
03.07.2013 04:58 17,7 C 16,2 C 89 % 1005,8 hPa 0,0 l/m 0 min 0 min 0,0 UV-I 0 W/m 5,1 km/h (1 Bft)
03.07.2013 05:00 17,7 C 16,2 C 89 % 1005,8 hPa 0,0 l/m 0 min 0 min 0,0 UV-I 0 W/m 2,6 km/h (1 Bft)
03.07.2013 05:02 17,7 C 16,2 C 89 % 1005,8 hPa 0,0 l/m 0 min 0 min 0,0 UV-I 0 W/m 0,0 km/h (0 Bft)
03.07.2013 05:06 17,6 C 16,2 C 89 % 1005,8 hPa 0,0 l/m 0 min 0 min 0,0 UV-I 0 W/m 0,0 km/h (0 Bft)
03.07.2013 05:08 17,6 C 16,2 C 89 % 1005,7 hPa 0,0 l/m 0 min 0 min 0,0 UV-I 0 W/m 0,0 km/h (0 Bft)
03.07.2013 05:10 17,6 C 16,2 C 89 % 1005,8 hPa 0,0 l/m 0 min 0 min 0,0 UV-I 0 W/m 0,0 km/h (0 Bft)
03.07.2013 05:12 17,6 C 16,2 C 89 % 1005,8 hPa 0,0 l/m 0 min 0 min 0,0 UV-I 0 W/m 0,0 km/h (0 Bft)
03.07.2013 05:14 17,6 C 16,2 C 89 % 1005,7 hPa 0,0 l/m 0 min 0 min 0,0 UV-I 0 W/m 2,6 km/h (1 Bft)
03.07.2013 05:16 17,6 C 16,2 C 89 % 1005,7 hPa 0,0 l/m 0 min 2 min 0,0 UV-I 0 W/m 0,0 km/h (0 Bft)
03.07.2013 05:18 17,6 C 16,2 C 89 % 1005,8 hPa 0,0 l/m 0 min 0 min 0,0 UV-I 0 W/m 0,0 km/h (0 Bft)
03.07.2013 05:20 17,6 C 16,2 C 89 % 1005,8 hPa 0,0 l/m 0 min 0 min 0,0 UV-I 0 W/m 0,0 km/h (0 Bft)
03.07.2013 05:22 17,6 C 15,7 C 89 % 1005,7 hPa 0,0 l/m 0 min 0 min 0,0 UV-I 0 W/m 0,0 km/h (0 Bft)
03.07.2013 05:24 17,6 C 16,2 C 89 % 1005,8 hPa 0,0 l/m 0 min 0 min 0,0 UV-I 0 W/m 0,0 km/h (0 Bft)
03.07.2013 05:26 17,6 C 15,7 C 89 % 1005,8 hPa 0,0 l/m 0 min 0 min 0,0 UV-I 0 W/m 7,7 km/h (2 Bft)
03.07.2013 05:28 17,6 C 15,7 C 89 % 1005,7 hPa 0,0 l/m 0 min 0 min 0,0 UV-I 0 W/m 5,1 km/h (1 Bft)
03.07.2013 05:30 17,6 C 15,7 C 90 % 1005,7 hPa 0,0 l/m 0 min 0 min 0,0 UV-I 0 W/m 2,6 km/h (1 Bft)
03.07.2013 05:32 17,6 C 16,2 C 90 % 1005,8 hPa 0,0 l/m 0 min 2 min 0,0 UV-I 0 W/m 0,0 km/h (0 Bft)
03.07.2013 05:34 17,6 C 16,2 C 90 % 1005,7 hPa 0,0 l/m 0 min 0 min 0,0 UV-I 0 W/m 0,0 km/h (0 Bft)
03.07.2013 05:36 17,6 C 16,2 C 90 % 1005,7 hPa 0,0 l/m 0 min 2 min 0,0 UV-I 0 W/m 0,0 km/h (0 Bft)
03.07.2013 05:38 17,6 C 16,2 C 90 % 1005,7 hPa 0,0 l/m 0 min 0 min 0,0 UV-I 5 W/m 2,6 km/h (1 Bft)
03.07.2013 05:40 17,6 C 16,2 C 90 % 1005,7 hPa 0,0 l/m 0 min 0 min 0,0 UV-I 5 W/m 0,0 km/h (0 Bft)
03.07.2013 05:42 17,6 C 16,2 C 90 % 1005,7 hPa 0,0 l/m 0 min 0 min 0,0 UV-I 7 W/m 0,0 km/h (0 Bft)
03.07.2013 05:44 17,6 C 16,2 C 90 % 1005,7 hPa 0,0 l/m 0 min 0 min 0,0 UV-I 9 W/m 2,6 km/h (1 Bft)
03.07.2013 05:46 17,6 C 16,2 C 90 % 1005,7 hPa 0,0 l/m 0 min 0 min 0,0 UV-I 11 W/m 0,0 km/h (0 Bft)
03.07.2013 05:48 17,6 C 16,2 C 90 % 1005,7 hPa 0,0 l/m 0 min 0 min 0,0 UV-I 12 W/m 2,6 km/h (1 Bft)
03.07.2013 05:50 17,6 C 16,2 C 90 % 1005,7 hPa 0,0 l/m 0 min 0 min 0,0 UV-I 18 W/m 2,6 km/h (1 Bft)
03.07.2013 05:52 17,6 C 16,2 C 90 % 1005,7 hPa 0,0 l/m 0 min 0 min 0,0 UV-I 21 W/m 0,0 km/h (0 Bft)
03.07.2013 05:54 17,5 C 16,2 C 90 % 1005,6 hPa 0,0 l/m 0 min 0 min 0,0 UV-I 21 W/m 0,0 km/h (0 Bft)
03.07.2013 05:56 17,5 C 16,2 C 90 % 1005,6 hPa 0,0 l/m 0 min 0 min 0,0 UV-I 23 W/m 2,6 km/h (1 Bft)
03.07.2013 05:58 17,5 C 16,2 C 90 % 1005,7 hPa 0,0 l/m 0 min 0 min 0,0 UV-I 21 W/m 2,6 km/h (1 Bft)
03.07.2013 06:00 17,5 C 16,2 C 90 % 1005,6 hPa 0,0 l/m 0 min 0 min 0,0 UV-I 19 W/m 2,6 km/h (1 Bft)
03.07.2013 06:02 17,5 C 16,2 C 90 % 1005,6 hPa 0,0 l/m 0 min 0 min 0,0 UV-I 18 W/m 2,6 km/h (1 Bft)
03.07.2013 06:06 17,5 C 16,2 C 91 % 1005,6 hPa 0,0 l/m 0 min 0 min 0,0 UV-I 16 W/m 7,7 km/h (2 Bft)
03.07.2013 06:08 17,5 C 16,2 C 91 % 1005,6 hPa 0,0 l/m 0 min 0 min 0,0 UV-I 16 W/m 10,3 km/h (2 Bft)
03.07.2013 06:10 17,5 C 16,2 C 91 % 1005,6 hPa 0,0 l/m 0 min 0 min 0,0 UV-I 18 W/m 5,1 km/h (1 Bft)
03.07.2013 06:12 17,5 C 16,2 C 91 % 1005,6 hPa 0,0 l/m 0 min 0 min 0,0 UV-I 18 W/m 10,3 km/h (2 Bft)
03.07.2013 06:14 17,5 C 16,2 C 91 % 1005,6 hPa 0,0 l/m 0 min 0 min 0,0 UV-I 16 W/m 7,7 km/h (2 Bft)
03.07.2013 06:16 17,5 C 16,2 C 91 % 1005,7 hPa 0,0 l/m 0 min 0 min 0,0 UV-I 14 W/m 5,1 km/h (1 Bft)
03.07.2013 06:18 17,5 C 16,2 C 91 % 1005,7 hPa 0,0 l/m 0 min 0 min 0,0 UV-I 14 W/m 0,0 km/h (0 Bft)
03.07.2013 06:20 17,5 C 16,2 C 91 % 1005,7 hPa 0,0 l/m 0 min 0 min 0,0 UV-I 12 W/m 2,6 km/h (1 Bft)
03.07.2013 06:22 17,5 C 16,2 C 91 % 1005,7 hPa 0,0 l/m 0 min 0 min 0,0 UV-I 12 W/m 0,0 km/h (0 Bft)
03.07.2013 06:24 17,5 C 16,2 C 91 % 1005,8 hPa 0,0 l/m 0 min 0 min 0,0 UV-I 11 W/m 0,0 km/h (0 Bft)
03.07.2013 06:26 17,5 C 16,2 C 91 % 1005,8 hPa 0,0 l/m 0 min 0 min 0,0 UV-I 11 W/m 0,0 km/h (0 Bft)
03.07.2013 06:28 17,4 C 16,2 C 91 % 1005,8 hPa 0,0 l/m 0 min 0 min 0,0 UV-I 11 W/m 0,0 km/h (0 Bft)
03.07.2013 06:30 17,4 C 16,2 C 91 % 1005,8 hPa 0,0 l/m 0 min 0 min 0,0 UV-I 11 W/m 0,0 km/h (0 Bft)
03.07.2013 06:32 17,4 C 16,2 C 91 % 1005,9 hPa 0,0 l/m 0 min 0 min 0,0 UV-I 11 W/m 0,0 km/h (0 Bft)
03.07.2013 06:34 17,4 C 16,2 C 91 % 1005,9 hPa 0,0 l/m 0 min 0 min 0,0 UV-I 11 W/m 2,6 km/h (1 Bft)
03.07.2013 06:36 17,5 C 16,2 C 91 % 1006,0 hPa 0,0 l/m 0 min 0 min 0,0 UV-I 11 W/m 2,6 km/h (1 Bft)
03.07.2013 06:38 17,4 C 16,2 C 91 % 1006,0 hPa 0,0 l/m 0 min 0 min 0,0 UV-I 9 W/m 0,0 km/h (0 Bft)
03.07.2013 06:40 17,4 C 16,2 C 91 % 1006,0 hPa 0,0 l/m 0 min 0 min 0,0 UV-I 9 W/m 2,6 km/h (1 Bft)
03.07.2013 06:42 17,4 C 16,2 C 91 % 1006,0 hPa 0,0 l/m 0 min 0 min 0,0 UV-I 7 W/m 2,6 km/h (1 Bft)
03.07.2013 06:44 17,4 C 16,2 C 91 % 1006,1 hPa 0,0 l/m 0 min 0 min 0,0 UV-I 9 W/m 7,7 km/h (2 Bft)
03.07.2013 06:46 17,4 C 16,2 C 91 % 1006,1 hPa 0,0 l/m 0 min 0 min 0,0 UV-I 9 W/m 10,3 km/h (2 Bft)
03.07.2013 06:48 17,4 C 16,2 C 91 % 1006,2 hPa 0,0 l/m 0 min 2 min 0,0 UV-I 11 W/m 12,9 km/h (3 Bft)
03.07.2013 06:50 17,5 C 16,2 C 91 % 1006,2 hPa 0,0 l/m 0 min 2 min 0,0 UV-I 12 W/m 7,7 km/h (2 Bft)
03.07.2013 06:52 17,5 C 15,7 C 92 % 1006,2 hPa 0,0 l/m 0 min 2 min 0,0 UV-I 14 W/m 2,6 km/h (1 Bft)
03.07.2013 06:54 17,5 C 15,7 C 92 % 1006,2 hPa 0,0 l/m 0 min 2 min 0,0 UV-I 16 W/m 2,6 km/h (1 Bft)
03.07.2013 06:56 17,5 C 15,7 C 92 % 1006,1 hPa 0,0 l/m 0 min 2 min 0,0 UV-I 16 W/m 0,0 km/h (0 Bft)
03.07.2013 06:58 17,5 C 15,7 C 92 % 1006,2 hPa 0,2 l/m 0 min 2 min 0,0 UV-I 19 W/m 2,6 km/h (1 Bft)
03.07.2013 07:00 17,5 C 15,7 C 92 % 1006,2 hPa 0,0 l/m 0 min 2 min 0,0 UV-I 14 W/m 0,0 km/h (0 Bft)
03.07.2013 07:02 17,5 C 15,7 C 92 % 1006,3 hPa 0,2 l/m 0 min 2 min 0,0 UV-I 16 W/m 2,6 km/h (1 Bft)
03.07.2013 07:06 17,6 C 15,7 C 92 % 1006,3 hPa 0,0 l/m 0 min 2 min 0,0 UV-I 14 W/m 0,0 km/h (0 Bft)
03.07.2013 07:08 17,5 C 15,7 C 92 % 1006,2 hPa 0,2 l/m 0 min 2 min 0,0 UV-I 16 W/m 7,7 km/h (2 Bft)
03.07.2013 07:10 17,5 C 15,7 C 93 % 1006,3 hPa 0,0 l/m 0 min 2 min 0,0 UV-I 16 W/m 2,6 km/h (1 Bft)
03.07.2013 07:12 17,5 C 15,7 C 93 % 1006,4 hPa 0,2 l/m 0 min 2 min 0,0 UV-I 14 W/m 0,0 km/h (0 Bft)
03.07.2013 07:14 17,5 C 15,7 C 93 % 1006,4 hPa 0,2 l/m 0 min 2 min 0,0 UV-I 12 W/m 0,0 km/h (0 Bft)
03.07.2013 07:16 17,5 C 15,7 C 93 % 1006,3 hPa 0,0 l/m 0 min 2 min 0,0 UV-I 12 W/m 0,0 km/h (0 Bft)
03.07.2013 07:18 17,5 C 15,7 C 93 % 1006,3 hPa 0,4 l/m 0 min 2 min 0,0 UV-I 11 W/m 0,0 km/h (0 Bft)
03.07.2013 07:20 17,5 C 15,7 C 93 % 1006,3 hPa 0,2 l/m 0 min 2 min 0,0 UV-I 12 W/m 0,0 km/h (0 Bft)
03.07.2013 07:22 17,5 C 15,7 C 93 % 1006,3 hPa 0,0 l/m 0 min 2 min 0,0 UV-I 12 W/m 0,0 km/h (0 Bft)
03.07.2013 07:24 17,5 C 15,7 C 93 % 1006,2 hPa 0,2 l/m 0 min 2 min 0,0 UV-I 14 W/m 0,0 km/h (0 Bft)
03.07.2013 07:26 17,4 C 15,7 C 93 % 1006,2 hPa 0,2 l/m 0 min 2 min 0,0 UV-I 18 W/m 0,0 km/h (0 Bft)
03.07.2013 07:28 17,4 C 15,7 C 93 % 1006,3 hPa 0,0 l/m 0 min 2 min 0,0 UV-I 23 W/m 0,0 km/h (0 Bft)
03.07.2013 07:30 17,4 C 15,7 C 93 % 1006,2 hPa 0,2 l/m 0 min 2 min 0,0 UV-I 28 W/m 0,0 km/h (0 Bft)
03.07.2013 07:32 17,4 C 15,7 C 93 % 1006,2 hPa 0,0 l/m 0 min 2 min 0,0 UV-I 30 W/m 0,0 km/h (0 Bft)
03.07.2013 07:34 17,4 C 15,7 C 93 % 1006,1 hPa 0,0 l/m 0 min 2 min 0,0 UV-I 32 W/m 0,0 km/h (0 Bft)
03.07.2013 07:36 17,4 C 15,7 C 93 % 1006,2 hPa 0,0 l/m 0 min 2 min 0,0 UV-I 35 W/m 0,0 km/h (0 Bft)
03.07.2013 07:38 17,4 C 15,7 C 93 % 1006,2 hPa 0,2 l/m 0 min 2 min 0,0 UV-I 39 W/m 0,0 km/h (0 Bft)
03.07.2013 07:40 17,4 C 15,7 C 94 % 1006,2 hPa 0,0 l/m 0 min 2 min 0,0 UV-I 37 W/m 0,0 km/h (0 Bft)
03.07.2013 07:42 17,4 C 16,2 C 94 % 1006,2 hPa 0,0 l/m 0 min 2 min 0,0 UV-I 37 W/m 0,0 km/h (0 Bft)
03.07.2013 07:44 17,4 C 16,2 C 94 % 1006,2 hPa 0,0 l/m 0 min 2 min 0,0 UV-I 37 W/m 0,0 km/h (0 Bft)
03.07.2013 07:46 17,5 C 16,2 C 94 % 1006,3 hPa 0,0 l/m 0 min 2 min 0,0 UV-I 39 W/m 0,0 km/h (0 Bft)
03.07.2013 07:48 17,5 C 16,2 C 94 % 1006,3 hPa 0,0 l/m 0 min 2 min 0,0 UV-I 42 W/m 0,0 km/h (0 Bft)
03.07.2013 07:50 17,5 C 16,2 C 94 % 1006,2 hPa 0,0 l/m 0 min 2 min 0,0 UV-I 46 W/m 0,0 km/h (0 Bft)
03.07.2013 07:52 17,5 C 16,2 C 94 % 1006,3 hPa 0,0 l/m 0 min 2 min 0,0 UV-I 51 W/m 0,0 km/h (0 Bft)
03.07.2013 07:54 17,5 C 16,2 C 94 % 1006,3 hPa 0,0 l/m 0 min 2 min 0,0 UV-I 60 W/m 0,0 km/h (0 Bft)
03.07.2013 07:56 17,5 C 16,2 C 94 % 1006,3 hPa 0,0 l/m 0 min 2 min 0,0 UV-I 65 W/m 0,0 km/h (0 Bft)
03.07.2013 07:58 17,5 C 16,2 C 94 % 1006,3 hPa 0,0 l/m 0 min 2 min 0,0 UV-I 65 W/m 0,0 km/h (0 Bft)
03.07.2013 08:00 17,6 C 16,2 C 95 % 1006,3 hPa 0,0 l/m 0 min 2 min 0,0 UV-I 54 W/m 0,0 km/h (0 Bft)
03.07.2013 08:02 17,6 C 16,2 C 95 % 1006,3 hPa 0,0 l/m 0 min 2 min 0,0 UV-I 56 W/m 0,0 km/h (0 Bft)
03.07.2013 08:06 17,6 C 16,2 C 95 % 1006,3 hPa 0,0 l/m 0 min 2 min 0,0 UV-I 70 W/m 0,0 km/h (0 Bft)
03.07.2013 08:08 17,6 C 16,2 C 95 % 1006,4 hPa 0,2 l/m 0 min 2 min 0,0 UV-I 72 W/m 2,6 km/h (1 Bft)
03.07.2013 08:10 17,6 C 16,2 C 95 % 1006,4 hPa 0,0 l/m 0 min 2 min 0,0 UV-I 69 W/m 0,0 km/h (0 Bft)
03.07.2013 08:12 17,6 C 16,2 C 95 % 1006,3 hPa 0,0 l/m 0 min 2 min 0,0 UV-I 69 W/m 0,0 km/h (0 Bft)
03.07.2013 08:14 17,6 C 16,2 C 95 % 1006,4 hPa 0,0 l/m 0 min 2 min 0,0 UV-I 58 W/m 0,0 km/h (0 Bft)
03.07.2013 08:16 17,6 C 16,2 C 95 % 1006,4 hPa 0,0 l/m 0 min 2 min 0,0 UV-I 42 W/m 0,0 km/h (0 Bft)
03.07.2013 08:18 17,6 C 16,2 C 95 % 1006,4 hPa 0,2 l/m 0 min 2 min 0,0 UV-I 42 W/m 0,0 km/h (0 Bft)
03.07.2013 08:20 17,6 C 16,2 C 95 % 1006,4 hPa 0,0 l/m 0 min 2 min 0,0 UV-I 44 W/m 0,0 km/h (0 Bft)
03.07.2013 08:22 17,6 C 16,2 C 95 % 1006,5 hPa 0,0 l/m 0 min 2 min 0,0 UV-I 46 W/m 0,0 km/h (0 Bft)
03.07.2013 08:24 17,6 C 16,2 C 95 % 1006,4 hPa 0,0 l/m 0 min 2 min 0,0 UV-I 44 W/m 0,0 km/h (0 Bft)
03.07.2013 08:26 17,6 C 16,2 C 95 % 1006,4 hPa 0,0 l/m 0 min 2 min 0,0 UV-I 39 W/m 5,1 km/h (1 Bft)
03.07.2013 08:28 17,6 C 16,2 C 95 % 1006,4 hPa 0,2 l/m 0 min 2 min 0,0 UV-I 26 W/m 0,0 km/h (0 Bft)
03.07.2013 08:30 17,6 C 16,2 C 96 % 1006,4 hPa 0,0 l/m 0 min 2 min 0,0 UV-I 25 W/m 0,0 km/h (0 Bft)
03.07.2013 08:32 17,6 C 16,2 C 96 % 1006,6 hPa 0,0 l/m 0 min 2 min 0,0 UV-I 23 W/m 0,0 km/h (0 Bft)
03.07.2013 08:34 17,7 C 16,2 C 96 % 1006,6 hPa 0,0 l/m 0 min 2 min 0,0 UV-I 30 W/m 0,0 km/h (0 Bft)
03.07.2013 08:36 17,7 C 16,2 C 96 % 1006,6 hPa 0,0 l/m 0 min 2 min 0,0 UV-I 35 W/m 0,0 km/h (0 Bft)
03.07.2013 08:38 17,6 C 16,2 C 96 % 1006,6 hPa 0,2 l/m 0 min 2 min 0,0 UV-I 51 W/m 0,0 km/h (0 Bft)
03.07.2013 08:40 17,6 C 16,2 C 96 % 1006,6 hPa 0,0 l/m 0 min 2 min 0,0 UV-I 67 W/m 0,0 km/h (0 Bft)
03.07.2013 08:42 17,6 C 16,2 C 96 % 1006,6 hPa 0,0 l/m 0 min 2 min 0,0 UV-I 83 W/m 0,0 km/h (0 Bft)
03.07.2013 08:44 17,7 C 16,8 C 96 % 1006,6 hPa 0,0 l/m 0 min 2 min 0,0 UV-I 104 W/m 0,0 km/h (0 Bft)
03.07.2013 08:46 17,7 C 16,8 C 96 % 1006,6 hPa 0,2 l/m 0 min 2 min 0,0 UV-I 116 W/m 0,0 km/h (0 Bft)
03.07.2013 08:48 17,7 C 16,8 C 96 % 1006,7 hPa 0,0 l/m 0 min 2 min 0,0 UV-I 107 W/m 0,0 km/h (0 Bft)
03.07.2013 08:50 17,7 C 16,8 C 96 % 1006,7 hPa 0,0 l/m 0 min 2 min 0,0 UV-I 97 W/m 0,0 km/h (0 Bft)
03.07.2013 08:52 17,7 C 16,8 C 96 % 1006,6 hPa 0,0 l/m 0 min 2 min 0,0 UV-I 98 W/m 2,6 km/h (1 Bft)
03.07.2013 08:54 17,7 C 16,8 C 96 % 1006,7 hPa 0,2 l/m 0 min 2 min 0,0 UV-I 98 W/m 0,0 km/h (0 Bft)
03.07.2013 08:56 17,8 C 16,8 C 96 % 1006,7 hPa 0,0 l/m 0 min 2 min 0,0 UV-I 91 W/m 0,0 km/h (0 Bft)
03.07.2013 08:58 17,8 C 16,8 C 96 % 1006,8 hPa 0,0 l/m 0 min 2 min 0,0 UV-I 86 W/m 0,0 km/h (0 Bft)
03.07.2013 09:00 17,8 C 16,8 C 96 % 1006,7 hPa 0,0 l/m 0 min 2 min 0,0 UV-I 84 W/m 0,0 km/h (0 Bft)
03.07.2013 09:02 17,8 C 16,8 C 96 % 1006,8 hPa 0,0 l/m 0 min 2 min 0,0 UV-I 83 W/m 0,0 km/h (0 Bft)
03.07.2013 09:06 17,8 C 16,8 C 97 % 1006,9 hPa 0,0 l/m 0 min 2 min 0,0 UV-I 65 W/m 0,0 km/h (0 Bft)
03.07.2013 09:08 17,9 C 16,8 C 97 % 1006,9 hPa 0,0 l/m 0 min 2 min 0,0 UV-I 74 W/m 0,0 km/h (0 Bft)
03.07.2013 09:10 17,9 C 16,8 C 97 % 1006,9 hPa 0,2 l/m 0 min 2 min 0,0 UV-I 76 W/m 0,0 km/h (0 Bft)
03.07.2013 09:12 17,9 C 16,8 C 97 % 1006,9 hPa 0,0 l/m 0 min 2 min 0,0 UV-I 67 W/m 0,0 km/h (0 Bft)
03.07.2013 09:14 17,9 C 16,8 C 97 % 1007,0 hPa 0,0 l/m 0 min 2 min 0,0 UV-I 70 W/m 0,0 km/h (0 Bft)
03.07.2013 09:16 17,9 C 16,8 C 97 % 1007,0 hPa 0,0 l/m 0 min 2 min 0,0 UV-I 63 W/m 0,0 km/h (0 Bft)
03.07.2013 09:18 17,9 C 16,8 C 97 % 1007,0 hPa 0,0 l/m 0 min 2 min 0,0 UV-I 70 W/m 0,0 km/h (0 Bft)
03.07.2013 09:20 17,9 C 16,8 C 97 % 1007,0 hPa 0,2 l/m 0 min 2 min 0,0 UV-I 81 W/m 0,0 km/h (0 Bft)
03.07.2013 09:22 17,9 C 16,8 C 97 % 1007,0 hPa 0,0 l/m 0 min 2 min 0,0 UV-I 70 W/m 0,0 km/h (0 Bft)
03.07.2013 09:24 17,9 C 16,8 C 97 % 1007,1 hPa 0,0 l/m 0 min 2 min 0,0 UV-I 62 W/m 0,0 km/h (0 Bft)
03.07.2013 09:26 17,9 C 16,8 C 97 % 1007,1 hPa 0,0 l/m 0 min 2 min 0,0 UV-I 35 W/m 0,0 km/h (0 Bft)
03.07.2013 09:28 17,9 C 16,2 C 97 % 1007,2 hPa 0,2 l/m 0 min 2 min 0,0 UV-I 33 W/m 0,0 km/h (0 Bft)
03.07.2013 09:30 17,9 C 16,2 C 97 % 1007,2 hPa 0,0 l/m 0 min 2 min 0,0 UV-I 28 W/m 0,0 km/h (0 Bft)
03.07.2013 09:32 17,8 C 16,2 C 97 % 1007,3 hPa 0,0 l/m 0 min 2 min 0,0 UV-I 26 W/m 0,0 km/h (0 Bft)
03.07.2013 09:34 17,8 C 16,2 C 97 % 1007,2 hPa 0,2 l/m 0 min 2 min 0,0 UV-I 26 W/m 0,0 km/h (0 Bft)
03.07.2013 09:36 17,8 C 16,2 C 97 % 1007,3 hPa 0,2 l/m 0 min 2 min 0,0 UV-I 18 W/m 0,0 km/h (0 Bft)
03.07.2013 09:38 17,8 C 16,2 C 97 % 1007,3 hPa 0,2 l/m 0 min 2 min 0,0 UV-I 16 W/m 0,0 km/h (0 Bft)
03.07.2013 09:40 17,8 C 16,2 C 97 % 1007,3 hPa 0,2 l/m 0 min 2 min 0,0 UV-I 25 W/m 0,0 km/h (0 Bft)
03.07.2013 09:42 17,8 C 16,2 C 97 % 1007,4 hPa 0,0 l/m 0 min 2 min 0,0 UV-I 32 W/m 0,0 km/h (0 Bft)
03.07.2013 09:44 17,7 C 16,2 C 97 % 1007,4 hPa 0,2 l/m 0 min 2 min 0,0 UV-I 35 W/m 2,6 km/h (1 Bft)
03.07.2013 09:46 17,7 C 16,2 C 97 % 1007,5 hPa 0,0 l/m 0 min 2 min 0,0 UV-I 42 W/m 0,0 km/h (0 Bft)
03.07.2013 09:48 17,7 C 16,2 C 97 % 1007,4 hPa 0,0 l/m 0 min 2 min 0,0 UV-I 47 W/m 5,1 km/h (1 Bft)
03.07.2013 09:50 17,7 C 16,2 C 97 % 1007,3 hPa 0,2 l/m 0 min 2 min 0,0 UV-I 47 W/m 0,0 km/h (0 Bft)
03.07.2013 09:52 17,7 C 16,2 C 97 % 1007,3 hPa 0,0 l/m 0 min 2 min 0,0 UV-I 47 W/m 0,0 km/h (0 Bft)
03.07.2013 09:54 17,7 C 16,2 C 97 % 1007,3 hPa 0,2 l/m 0 min 2 min 0,0 UV-I 53 W/m 0,0 km/h (0 Bft)
03.07.2013 09:56 17,7 C 16,2 C 97 % 1007,3 hPa 0,0 l/m 0 min 2 min 0,0 UV-I 65 W/m 0,0 km/h (0 Bft)
03.07.2013 09:58 17,6 C 16,2 C 97 % 1007,4 hPa 0,0 l/m 0 min 2 min 0,0 UV-I 74 W/m 0,0 km/h (0 Bft)
03.07.2013 10:00 17,6 C 16,2 C 97 % 1007,3 hPa 0,0 l/m 0 min 2 min 0,0 UV-I 88 W/m 0,0 km/h (0 Bft)
03.07.2013 10:02 17,6 C 16,2 C 97 % 1007,3 hPa 0,0 l/m 0 min 2 min 0,0 UV-I 121 W/m 0,0 km/h (0 Bft)
03.07.2013 10:06 17,6 C 16,2 C 97 % 1007,2 hPa 0,0 l/m 0 min 2 min 0,0 UV-I 155 W/m 0,0 km/h (0 Bft)
03.07.2013 10:08 17,6 C 16,2 C 97 % 1007,2 hPa 0,0 l/m 0 min 2 min 0,0 UV-I 165 W/m 0,0 km/h (0 Bft)
03.07.2013 10:10 17,6 C 16,8 C 97 % 1007,2 hPa 0,0 l/m 0 min 2 min 0,0 UV-I 165 W/m 0,0 km/h (0 Bft)
03.07.2013 10:12 17,6 C 16,8 C 97 % 1007,2 hPa 0,0 l/m 0 min 2 min 0,0 UV-I 158 W/m 0,0 km/h (0 Bft)
03.07.2013 10:14 17,6 C 16,2 C 97 % 1007,3 hPa 0,0 l/m 0 min 2 min 0,0 UV-I 141 W/m 0,0 km/h (0 Bft)
03.07.2013 10:16 17,6 C 16,2 C 97 % 1007,3 hPa 0,0 l/m 0 min 2 min 0,0 UV-I 128 W/m 0,0 km/h (0 Bft)
03.07.2013 10:18 17,5 C 16,2 C 97 % 1007,4 hPa 0,0 l/m 0 min 2 min 0,0 UV-I 118 W/m 0,0 km/h (0 Bft)
03.07.2013 10:20 17,5 C 16,2 C 97 % 1007,3 hPa 0,2 l/m 0 min 2 min 0,0 UV-I 98 W/m 0,0 km/h (0 Bft)
03.07.2013 10:22 17,6 C 16,2 C 97 % 1007,5 hPa 0,0 l/m 0 min 2 min 0,0 UV-I 88 W/m 0,0 km/h (0 Bft)
03.07.2013 10:24 17,5 C 16,2 C 97 % 1007,4 hPa 0,0 l/m 0 min 2 min 0,0 UV-I 81 W/m 0,0 km/h (0 Bft)
03.07.2013 10:26 17,5 C 16,2 C 97 % 1007,5 hPa 0,0 l/m 0 min 2 min 0,0 UV-I 63 W/m 0,0 km/h (0 Bft)
03.07.2013 10:28 17,4 C 15,7 C 97 % 1007,5 hPa 0,0 l/m 0 min 2 min 0,0 UV-I 77 W/m 0,0 km/h (0 Bft)
03.07.2013 10:30 17,4 C 15,7 C 96 % 1007,5 hPa 0,0 l/m 0 min 2 min 0,0 UV-I 95 W/m 0,0 km/h (0 Bft)
03.07.2013 10:32 17,4 C 15,7 C 96 % 1007,5 hPa 0,0 l/m 0 min 2 min 0,0 UV-I 100 W/m 0,0 km/h (0 Bft)
03.07.2013 10:34 17,4 C 15,7 C 96 % 1007,5 hPa 0,0 l/m 0 min 2 min 0,0 UV-I 116 W/m 0,0 km/h (0 Bft)
03.07.2013 10:36 17,4 C 16,2 C 96 % 1007,5 hPa 0,0 l/m 0 min 2 min 0,0 UV-I 137 W/m 0,0 km/h (0 Bft)
03.07.2013 10:38 17,4 C 16,2 C 96 % 1007,5 hPa 0,0 l/m 0 min 2 min 0,0 UV-I 174 W/m 0,0 km/h (0 Bft)
03.07.2013 10:40 17,4 C 16,2 C 96 % 1007,5 hPa 0,0 l/m 0 min 2 min 0,0 UV-I 186 W/m 0,0 km/h (0 Bft)
03.07.2013 10:42 17,4 C 16,2 C 96 % 1007,5 hPa 0,0 l/m 0 min 2 min 0,5 UV-I 188 W/m 0,0 km/h (0 Bft)
03.07.2013 10:44 17,4 C 16,2 C 96 % 1007,6 hPa 0,0 l/m 0 min 2 min 0,0 UV-I 176 W/m 0,0 km/h (0 Bft)
03.07.2013 10:46 17,4 C 16,2 C 96 % 1007,6 hPa 0,0 l/m 0 min 2 min 0,0 UV-I 162 W/m 0,0 km/h (0 Bft)
03.07.2013 10:48 17,4 C 16,8 C 96 % 1007,5 hPa 0,0 l/m 0 min 2 min 0,0 UV-I 146 W/m 0,0 km/h (0 Bft)
03.07.2013 10:50 17,5 C 16,2 C 96 % 1007,5 hPa 0,0 l/m 0 min 2 min 0,0 UV-I 141 W/m 0,0 km/h (0 Bft)
03.07.2013 10:52 17,5 C 16,2 C 96 % 1007,6 hPa 0,0 l/m 0 min 2 min 0,0 UV-I 134 W/m 0,0 km/h (0 Bft)
03.07.2013 10:54 17,6 C 16,2 C 96 % 1007,6 hPa 0,2 l/m 0 min 2 min 0,0 UV-I 130 W/m 0,0 km/h (0 Bft)
03.07.2013 10:56 17,6 C 16,2 C 96 % 1007,5 hPa 0,0 l/m 0 min 2 min 0,0 UV-I 120 W/m 0,0 km/h (0 Bft)
03.07.2013 10:58 17,6 C 16,2 C 96 % 1007,5 hPa 0,0 l/m 0 min 2 min 0,0 UV-I 109 W/m 0,0 km/h (0 Bft)
03.07.2013 11:00 17,6 C 16,2 C 96 % 1007,6 hPa 0,0 l/m 0 min 2 min 0,0 UV-I 90 W/m 7,7 km/h (2 Bft)
03.07.2013 11:02 17,6 C 16,2 C 96 % 1007,6 hPa 0,0 l/m 0 min 2 min 0,0 UV-I 90 W/m 0,0 km/h (0 Bft)
03.07.2013 11:06 17,6 C 16,2 C 96 % 1007,6 hPa 0,0 l/m 0 min 2 min 0,0 UV-I 137 W/m 2,6 km/h (1 Bft)
03.07.2013 11:08 17,6 C 16,2 C 96 % 1007,6 hPa 0,2 l/m 0 min 2 min 0,0 UV-I 146 W/m 0,0 km/h (0 Bft)
03.07.2013 11:10 17,5 C 16,2 C 96 % 1007,6 hPa 0,0 l/m 0 min 2 min 0,0 UV-I 127 W/m 7,7 km/h (2 Bft)
03.07.2013 11:12 17,5 C 16,2 C 96 % 1007,6 hPa 0,0 l/m 0 min 2 min 0,0 UV-I 118 W/m 7,7 km/h (2 Bft)
03.07.2013 11:14 17,4 C 16,2 C 96 % 1007,6 hPa 0,0 l/m 0 min 2 min 0,0 UV-I 130 W/m 2,6 km/h (1 Bft)
03.07.2013 11:16 17,4 C 16,2 C 96 % 1007,7 hPa 0,2 l/m 0 min 2 min 0,0 UV-I 137 W/m 5,1 km/h (1 Bft)
03.07.2013 11:18 17,4 C 16,2 C 96 % 1007,7 hPa 0,0 l/m 0 min 2 min 0,0 UV-I 144 W/m 0,0 km/h (0 Bft)
03.07.2013 11:20 17,4 C 15,7 C 96 % 1007,6 hPa 0,0 l/m 0 min 2 min 0,0 UV-I 155 W/m 10,3 km/h (2 Bft)
03.07.2013 11:22 17,4 C 16,2 C 96 % 1007,7 hPa 0,2 l/m 0 min 2 min 0,5 UV-I 178 W/m 0,0 km/h (0 Bft)
03.07.2013 11:24 17,4 C 16,2 C 96 % 1007,6 hPa 0,0 l/m 0 min 2 min 0,6 UV-I 199 W/m 0,0 km/h (0 Bft)
03.07.2013 11:26 17,4 C 16,2 C 96 % 1007,7 hPa 0,0 l/m 0 min 2 min 0,8 UV-I 216 W/m 0,0 km/h (0 Bft)
03.07.2013 11:28 17,4 C 16,2 C 96 % 1007,7 hPa 0,0 l/m 0 min 2 min 0,9 UV-I 229 W/m 2,6 km/h (1 Bft)
03.07.2013 11:30 17,4 C 16,2 C 96 % 1007,7 hPa 0,0 l/m 0 min 2 min 0,9 UV-I 237 W/m 5,1 km/h (1 Bft)
03.07.2013 11:32 17,4 C 16,8 C 96 % 1007,6 hPa 0,0 l/m 0 min 2 min 0,9 UV-I 237 W/m 0,0 km/h (0 Bft)
03.07.2013 11:34 17,3 C 16,2 C 96 % 1007,7 hPa 0,2 l/m 0 min 2 min 0,9 UV-I 236 W/m 2,6 km/h (1 Bft)
03.07.2013 11:36 17,2 C 16,2 C 96 % 1007,7 hPa 0,0 l/m 0 min 2 min 0,9 UV-I 227 W/m 5,1 km/h (1 Bft)
03.07.2013 11:38 17,2 C 16,2 C 96 % 1007,7 hPa 0,0 l/m 0 min 2 min 0,8 UV-I 204 W/m 7,7 km/h (2 Bft)
03.07.2013 11:40 17,1 C 16,2 C 96 % 1007,7 hPa 0,0 l/m 0 min 2 min 0,7 UV-I 200 W/m 7,7 km/h (2 Bft)
03.07.2013 11:42 17,0 C 16,2 C 96 % 1007,7 hPa 0,0 l/m 0 min 2 min 0,7 UV-I 202 W/m 0,0 km/h (0 Bft)
03.07.2013 11:44 17,0 C 16,2 C 96 % 1007,8 hPa 0,0 l/m 0 min 2 min 0,6 UV-I 190 W/m 0,0 km/h (0 Bft)
03.07.2013 11:46 17,0 C 16,2 C 96 % 1007,8 hPa 0,0 l/m 0 min 2 min 0,6 UV-I 179 W/m 0,0 km/h (0 Bft)
03.07.2013 11:48 16,9 C 16,2 C 96 % 1007,8 hPa 0,0 l/m 0 min 2 min 0,6 UV-I 185 W/m 0,0 km/h (0 Bft)
03.07.2013 11:50 17,0 C 16,2 C 96 % 1007,7 hPa 0,0 l/m 0 min 2 min 0,5 UV-I 174 W/m 0,0 km/h (0 Bft)
03.07.2013 11:52 17,1 C 16,2 C 96 % 1007,8 hPa 0,0 l/m 0 min 2 min 0,5 UV-I 174 W/m 0,0 km/h (0 Bft)
03.07.2013 11:54 17,2 C 16,8 C 97 % 1007,8 hPa 0,2 l/m 0 min 2 min 0,7 UV-I 195 W/m 0,0 km/h (0 Bft)
03.07.2013 11:56 17,2 C 16,8 C 97 % 1007,8 hPa 0,0 l/m 0 min 2 min 0,6 UV-I 181 W/m 0,0 km/h (0 Bft)
03.07.2013 11:58 17,2 C 16,2 C 97 % 1007,8 hPa 0,0 l/m 0 min 2 min 0,0 UV-I 148 W/m 0,0 km/h (0 Bft)
03.07.2013 12:00 17,2 C 16,2 C 97 % 1007,8 hPa 0,0 l/m 0 min 2 min 0,0 UV-I 132 W/m 5,1 km/h (1 Bft)
03.07.2013 12:02 17,2 C 16,2 C 97 % 1007,8 hPa 0,0 l/m 0 min 2 min 0,0 UV-I 88 W/m 0,0 km/h (0 Bft)
03.07.2013 12:06 17,2 C 15,7 C 97 % 1007,9 hPa 0,0 l/m 0 min 2 min 0,0 UV-I 51 W/m 5,1 km/h (1 Bft)
03.07.2013 12:08 17,2 C 15,7 C 97 % 1007,9 hPa 0,0 l/m 0 min 2 min 0,0 UV-I 44 W/m 0,0 km/h (0 Bft)
03.07.2013 12:10 17,2 C 15,7 C 97 % 1007,9 hPa 0,0 l/m 0 min 2 min 0,0 UV-I 40 W/m 0,0 km/h (0 Bft)
03.07.2013 12:12 17,2 C 15,7 C 97 % 1008,0 hPa 0,2 l/m 0 min 2 min 0,0 UV-I 35 W/m 5,1 km/h (1 Bft)
03.07.2013 12:14 17,1 C 15,7 C 97 % 1008,0 hPa 0,0 l/m 0 min 2 min 0,0 UV-I 53 W/m 0,0 km/h (0 Bft)
03.07.2013 12:16 17,1 C 15,7 C 97 % 1008,1 hPa 0,0 l/m 0 min 2 min 0,0 UV-I 60 W/m 0,0 km/h (0 Bft)
03.07.2013 12:18 17,1 C 15,7 C 97 % 1008,1 hPa 0,2 l/m 0 min 2 min 0,0 UV-I 65 W/m 0,0 km/h (0 Bft)
03.07.2013 12:20 17,1 C 15,7 C 97 % 1008,1 hPa 0,0 l/m 0 min 2 min 0,0 UV-I 90 W/m 0,0 km/h (0 Bft)
03.07.2013 12:22 17,1 C 15,7 C 97 % 1008,1 hPa 0,0 l/m 0 min 2 min 0,0 UV-I 132 W/m 0,0 km/h (0 Bft)
03.07.2013 12:24 17,1 C 15,7 C 97 % 1008,1 hPa 0,0 l/m 0 min 2 min 0,5 UV-I 155 W/m 5,1 km/h (1 Bft)
03.07.2013 12:26 17,1 C 16,2 C 97 % 1008,1 hPa 0,2 l/m 0 min 2 min 0,7 UV-I 183 W/m 0,0 km/h (0 Bft)
03.07.2013 12:28 17,1 C 16,2 C 97 % 1008,1 hPa 0,0 l/m 0 min 2 min 0,5 UV-I 149 W/m 2,6 km/h (1 Bft)
03.07.2013 12:30 17,1 C 16,2 C 97 % 1008,1 hPa 0,0 l/m 0 min 2 min 0,0 UV-I 130 W/m 0,0 km/h (0 Bft)
03.07.2013 12:32 17,1 C 16,2 C 97 % 1008,1 hPa 0,0 l/m 0 min 2 min 0,0 UV-I 142 W/m 0,0 km/h (0 Bft)
03.07.2013 12:34 17,1 C 16,2 C 97 % 1008,1 hPa 0,0 l/m 0 min 2 min 0,5 UV-I 172 W/m 5,1 km/h (1 Bft)
03.07.2013 12:36 17,1 C 16,2 C 97 % 1008,1 hPa 0,0 l/m 0 min 2 min 0,6 UV-I 172 W/m 5,1 km/h (1 Bft)
03.07.2013 12:38 17,0 C 16,2 C 97 % 1008,1 hPa 0,0 l/m 0 min 2 min 0,8 UV-I 199 W/m 7,7 km/h (2 Bft)
03.07.2013 12:40 17,1 C 16,8 C 97 % 1008,1 hPa 0,0 l/m 0 min 2 min 1,2 UV-I 251 W/m 5,1 km/h (1 Bft)
03.07.2013 12:42 17,2 C 16,8 C 97 % 1008,2 hPa 0,0 l/m 0 min 2 min 1,1 UV-I 241 W/m 0,0 km/h (0 Bft)
03.07.2013 12:44 17,2 C 16,8 C 97 % 1008,2 hPa 0,0 l/m 0 min 2 min 0,8 UV-I 195 W/m 5,1 km/h (1 Bft)
03.07.2013 12:46 17,2 C 16,8 C 97 % 1008,2 hPa 0,0 l/m 0 min 2 min 1,2 UV-I 227 W/m 5,1 km/h (1 Bft)
03.07.2013 12:48 17,2 C 16,8 C 97 % 1008,2 hPa 0,0 l/m 0 min 2 min 0,5 UV-I 156 W/m 0,0 km/h (0 Bft)
03.07.2013 12:50 17,3 C 16,8 C 97 % 1008,2 hPa 0,0 l/m 0 min 2 min 0,0 UV-I 100 W/m 10,3 km/h (2 Bft)
03.07.2013 12:52 17,3 C 16,2 C 97 % 1008,2 hPa 0,0 l/m 0 min 2 min 0,0 UV-I 60 W/m 10,3 km/h (2 Bft)
03.07.2013 12:54 17,3 C 15,7 C 97 % 1008,3 hPa 0,0 l/m 0 min 2 min 0,0 UV-I 76 W/m 12,9 km/h (3 Bft)
03.07.2013 12:56 17,2 C 15,7 C 97 % 1008,3 hPa 0,0 l/m 0 min 2 min 0,0 UV-I 114 W/m 18,0 km/h (3 Bft)
03.07.2013 12:58 17,2 C 15,7 C 97 % 1008,3 hPa 0,0 l/m 0 min 2 min 0,0 UV-I 141 W/m 7,7 km/h (2 Bft)
03.07.2013 13:00 17,2 C 15,7 C 97 % 1008,2 hPa 0,0 l/m 0 min 2 min 0,0 UV-I 142 W/m 2,6 km/h (1 Bft)
03.07.2013 13:02 17,2 C 15,7 C 97 % 1008,3 hPa 0,2 l/m 0 min 2 min 0,0 UV-I 139 W/m 12,9 km/h (3 Bft)
03.07.2013 13:06 17,1 C 15,7 C 97 % 1008,3 hPa 0,0 l/m 0 min 2 min 0,0 UV-I 139 W/m 5,1 km/h (1 Bft)
03.07.2013 13:08 17,1 C 15,7 C 97 % 1008,3 hPa 0,0 l/m 0 min 2 min 0,0 UV-I 142 W/m 0,0 km/h (0 Bft)
03.07.2013 13:10 17,1 C 15,7 C 97 % 1008,4 hPa 0,0 l/m 0 min 2 min 0,0 UV-I 146 W/m 0,0 km/h (0 Bft)
03.07.2013 13:12 17,1 C 15,7 C 97 % 1008,3 hPa 0,0 l/m 0 min 2 min 0,0 UV-I 151 W/m 7,7 km/h (2 Bft)
03.07.2013 13:14 17,1 C 15,7 C 97 % 1008,4 hPa 0,0 l/m 0 min 2 min 0,5 UV-I 158 W/m 2,6 km/h (1 Bft)
03.07.2013 13:16 17,1 C 16,2 C 97 % 1008,4 hPa 0,0 l/m 0 min 2 min 0,7 UV-I 183 W/m 0,0 km/h (0 Bft)
03.07.2013 13:18 17,1 C 16,2 C 97 % 1008,4 hPa 0,0 l/m 0 min 2 min 0,9 UV-I 207 W/m 5,1 km/h (1 Bft)
03.07.2013 13:20 16,9 C 16,2 C 96 % 1008,4 hPa 0,0 l/m 0 min 2 min 1,2 UV-I 244 W/m 2,6 km/h (1 Bft)
03.07.2013 13:22 16,9 C 16,2 C 96 % 1008,5 hPa 0,0 l/m 0 min 2 min 1,5 UV-I 295 W/m 2,6 km/h (1 Bft)
03.07.2013 13:24 16,9 C 16,8 C 96 % 1008,5 hPa 0,0 l/m 0 min 2 min 1,6 UV-I 304 W/m 0,0 km/h (0 Bft)
03.07.2013 13:26 17,1 C 16,8 C 97 % 1008,5 hPa 0,0 l/m 0 min 2 min 1,7 UV-I 323 W/m 5,1 km/h (1 Bft)
03.07.2013 13:28 17,0 C 16,8 C 97 % 1008,5 hPa 0,0 l/m 0 min 2 min 2,2 UV-I 374 W/m 5,1 km/h (1 Bft)
03.07.2013 13:30 17,2 C 16,8 C 97 % 1008,5 hPa 0,0 l/m 0 min 2 min 2,3 UV-I 387 W/m 7,7 km/h (2 Bft)
03.07.2013 13:32 17,2 C 16,8 C 97 % 1008,6 hPa 0,0 l/m 0 min 2 min 2,1 UV-I 367 W/m 15,4 km/h (3 Bft)
03.07.2013 13:34 17,2 C 17,3 C 97 % 1008,6 hPa 0,0 l/m 0 min 2 min 2,2 UV-I 369 W/m 10,3 km/h (2 Bft)
03.07.2013 13:36 17,2 C 16,8 C 97 % 1008,6 hPa 0,0 l/m 0 min 0 min 2,2 UV-I 381 W/m 12,9 km/h (3 Bft)
03.07.2013 13:38 17,3 C 17,3 C 97 % 1008,7 hPa 0,0 l/m 0 min 0 min 1,7 UV-I 315 W/m 7,7 km/h (2 Bft)
03.07.2013 13:40 17,3 C 16,8 C 97 % 1008,6 hPa 0,0 l/m 0 min 0 min 1,4 UV-I 276 W/m 7,7 km/h (2 Bft)
03.07.2013 13:42 17,3 C 16,8 C 96 % 1008,7 hPa 0,0 l/m 0 min 0 min 1,1 UV-I 241 W/m 12,9 km/h (3 Bft)
03.07.2013 13:44 17,3 C 16,8 C 96 % 1008,7 hPa 0,0 l/m 0 min 0 min 1,1 UV-I 234 W/m 5,1 km/h (1 Bft)
03.07.2013 13:46 17,3 C 16,8 C 96 % 1008,8 hPa 0,0 l/m 0 min 0 min 1,1 UV-I 237 W/m 2,6 km/h (1 Bft)
03.07.2013 13:48 17,2 C 16,2 C 96 % 1008,8 hPa 0,0 l/m 0 min 0 min 1,2 UV-I 253 W/m 7,7 km/h (2 Bft)
03.07.2013 13:50 17,3 C 16,8 C 95 % 1008,8 hPa 0,0 l/m 0 min 0 min 1,2 UV-I 244 W/m 5,1 km/h (1 Bft)
03.07.2013 13:52 17,3 C 16,8 C 96 % 1008,8 hPa 0,0 l/m 0 min 0 min 1,1 UV-I 237 W/m 10,3 km/h (2 Bft)
03.07.2013 13:54 17,4 C 16,8 C 96 % 1008,8 hPa 0,0 l/m 0 min 0 min 0,8 UV-I 202 W/m 5,1 km/h (1 Bft)
03.07.2013 13:56 17,4 C 16,8 C 96 % 1008,9 hPa 0,0 l/m 0 min 0 min 0,8 UV-I 207 W/m 5,1 km/h (1 Bft)
03.07.2013 13:58 17,4 C 16,2 C 96 % 1008,8 hPa 0,0 l/m 0 min 0 min 0,9 UV-I 213 W/m 7,7 km/h (2 Bft)
03.07.2013 14:00 17,3 C 16,2 C 95 % 1008,8 hPa 0,0 l/m 0 min 0 min 1,3 UV-I 236 W/m 15,4 km/h (3 Bft)
03.07.2013 14:02 17,4 C 16,2 C 95 % 1008,8 hPa 0,0 l/m 0 min 0 min 0,7 UV-I 155 W/m 2,6 km/h (1 Bft)
03.07.2013 14:06 17,4 C 16,2 C 95 % 1008,9 hPa 0,0 l/m 0 min 0 min 0,0 UV-I 142 W/m 7,7 km/h (2 Bft)
03.07.2013 14:08 17,4 C 16,2 C 95 % 1008,9 hPa 0,0 l/m 0 min 0 min 0,0 UV-I 125 W/m 12,9 km/h (3 Bft)
03.07.2013 14:10 17,4 C 16,2 C 95 % 1009,0 hPa 0,0 l/m 0 min 0 min 0,0 UV-I 127 W/m 5,1 km/h (1 Bft)
03.07.2013 14:12 17,4 C 16,2 C 95 % 1009,1 hPa 0,0 l/m 0 min 0 min 0,0 UV-I 90 W/m 0,0 km/h (0 Bft)
03.07.2013 14:14 17,4 C 15,7 C 95 % 1009,0 hPa 0,0 l/m 0 min 0 min 0,0 UV-I 58 W/m 2,6 km/h (1 Bft)
03.07.2013 14:16 17,4 C 15,7 C 95 % 1009,0 hPa 0,0 l/m 0 min 0 min 0,0 UV-I 65 W/m 0,0 km/h (0 Bft)
03.07.2013 14:18 17,4 C 15,7 C 95 % 1009,1 hPa 0,0 l/m 0 min 0 min 0,0 UV-I 86 W/m 5,1 km/h (1 Bft)
03.07.2013 14:20 17,4 C 15,7 C 94 % 1009,1 hPa 0,0 l/m 0 min 0 min 0,0 UV-I 130 W/m 0,0 km/h (0 Bft)
03.07.2013 14:22 17,4 C 16,2 C 94 % 1009,1 hPa 0,0 l/m 0 min 0 min 0,8 UV-I 186 W/m 0,0 km/h (0 Bft)
03.07.2013 14:24 17,4 C 16,2 C 94 % 1009,1 hPa 0,0 l/m 0 min 0 min 0,9 UV-I 213 W/m 7,7 km/h (2 Bft)
03.07.2013 14:26 17,4 C 16,2 C 94 % 1009,1 hPa 0,0 l/m 0 min 0 min 0,9 UV-I 218 W/m 7,7 km/h (2 Bft)
03.07.2013 14:28 17,5 C 16,2 C 94 % 1009,1 hPa 0,0 l/m 0 min 0 min 1,1 UV-I 239 W/m 2,6 km/h (1 Bft)
03.07.2013 14:30 17,5 C 16,2 C 94 % 1009,1 hPa 0,0 l/m 0 min 0 min 1,2 UV-I 253 W/m 5,1 km/h (1 Bft)
03.07.2013 14:32 17,6 C 16,8 C 94 % 1009,2 hPa 0,0 l/m 0 min 0 min 1,0 UV-I 239 W/m 2,6 km/h (1 Bft)
03.07.2013 14:34 17,6 C 16,8 C 94 % 1009,2 hPa 0,0 l/m 0 min 0 min 0,9 UV-I 229 W/m 5,1 km/h (1 Bft)
03.07.2013 14:36 17,6 C 16,8 C 94 % 1009,2 hPa 0,0 l/m 0 min 0 min 1,0 UV-I 255 W/m 0,0 km/h (0 Bft)
03.07.2013 14:38 17,7 C 16,8 C 94 % 1009,2 hPa 0,0 l/m 0 min 0 min 1,4 UV-I 311 W/m 0,0 km/h (0 Bft)
03.07.2013 14:40 17,8 C 17,3 C 94 % 1009,2 hPa 0,0 l/m 0 min 0 min 2,2 UV-I 415 W/m 0,0 km/h (0 Bft)
03.07.2013 14:42 17,9 C 17,9 C 94 % 1009,2 hPa 0,0 l/m 2 min 0 min 2,9 UV-I 512 W/m 7,7 km/h (2 Bft)
03.07.2013 14:44 18,0 C 17,9 C 93 % 1009,2 hPa 0,0 l/m 0 min 0 min 2,6 UV-I 448 W/m 7,7 km/h (2 Bft)
03.07.2013 14:46 18,1 C 17,9 C 93 % 1009,2 hPa 0,0 l/m 0 min 0 min 2,3 UV-I 417 W/m 7,7 km/h (2 Bft)
03.07.2013 14:48 18,2 C 17,9 C 92 % 1009,2 hPa 0,0 l/m 0 min 0 min 1,9 UV-I 380 W/m 10,3 km/h (2 Bft)
03.07.2013 14:50 18,3 C 17,3 C 92 % 1009,2 hPa 0,0 l/m 0 min 0 min 1,3 UV-I 283 W/m 10,3 km/h (2 Bft)
03.07.2013 14:52 18,2 C 17,3 C 91 % 1009,3 hPa 0,0 l/m 0 min 0 min 0,9 UV-I 227 W/m 2,6 km/h (1 Bft)
03.07.2013 14:54 18,2 C 17,3 C 92 % 1009,3 hPa 0,0 l/m 0 min 0 min 0,9 UV-I 227 W/m 7,7 km/h (2 Bft)
03.07.2013 14:56 18,1 C 16,8 C 91 % 1009,3 hPa 0,0 l/m 0 min 0 min 0,8 UV-I 192 W/m 12,9 km/h (3 Bft)
03.07.2013 14:58 17,9 C 16,8 C 91 % 1009,3 hPa 0,0 l/m 0 min 0 min 0,8 UV-I 214 W/m 7,7 km/h (2 Bft)
03.07.2013 15:00 17,9 C 16,8 C 91 % 1009,4 hPa 0,0 l/m 0 min 0 min 0,9 UV-I 207 W/m 5,1 km/h (1 Bft)
03.07.2013 15:02 17,8 C 16,8 C 92 % 1009,4 hPa 0,0 l/m 0 min 0 min 0,9 UV-I 206 W/m 2,6 km/h (1 Bft)
03.07.2013 15:06 17,7 C 16,8 C 92 % 1009,5 hPa 0,0 l/m 0 min 0 min 0,7 UV-I 181 W/m 10,3 km/h (2 Bft)
03.07.2013 15:08 17,7 C 16,8 C 92 % 1009,4 hPa 0,0 l/m 0 min 0 min 0,7 UV-I 193 W/m 7,7 km/h (2 Bft)
03.07.2013 15:10 17,6 C 16,8 C 92 % 1009,4 hPa 0,0 l/m 0 min 0 min 1,0 UV-I 232 W/m 12,9 km/h (3 Bft)
03.07.2013 15:12 17,6 C 17,3 C 92 % 1009,4 hPa 0,0 l/m 0 min 0 min 2,3 UV-I 288 W/m 0,0 km/h (0 Bft)
03.07.2013 15:14 17,8 C 17,9 C 93 % 1009,4 hPa 0,0 l/m 2 min 0 min 3,9 UV-I 652 W/m 0,0 km/h (0 Bft)
03.07.2013 15:16 18,2 C 18,4 C 93 % 1009,4 hPa 0,0 l/m 2 min 0 min 3,6 UV-I 652 W/m 0,0 km/h (0 Bft)
03.07.2013 15:18 18,4 C 19,0 C 93 % 1009,4 hPa 0,0 l/m 2 min 0 min 3,6 UV-I 645 W/m 5,1 km/h (1 Bft)
03.07.2013 15:20 18,6 C 19,0 C 92 % 1009,4 hPa 0,0 l/m 2 min 0 min 4,3 UV-I 777 W/m 7,7 km/h (2 Bft)
03.07.2013 15:22 18,8 C 19,0 C 90 % 1009,4 hPa 0,0 l/m 2 min 0 min 3,5 UV-I 796 W/m 10,3 km/h (2 Bft)
03.07.2013 15:24 18,9 C 19,0 C 90 % 1009,4 hPa 0,0 l/m 2 min 0 min 3,5 UV-I 598 W/m 5,1 km/h (1 Bft)
03.07.2013 15:26 18,8 C 19,0 C 89 % 1009,5 hPa 0,0 l/m 0 min 0 min 2,1 UV-I 350 W/m 10,3 km/h (2 Bft)
03.07.2013 15:28 18,8 C 19,0 C 88 % 1009,5 hPa 0,0 l/m 0 min 0 min 1,6 UV-I 290 W/m 10,3 km/h (2 Bft)
03.07.2013 15:30 18,7 C 18,4 C 88 % 1009,5 hPa 0,0 l/m 0 min 0 min 1,4 UV-I 290 W/m 7,7 km/h (2 Bft)
03.07.2013 15:32 18,7 C 18,4 C 88 % 1009,6 hPa 0,0 l/m 0 min 0 min 1,8 UV-I 341 W/m 10,3 km/h (2 Bft)
03.07.2013 15:34 18,7 C 19,0 C 88 % 1009,6 hPa 0,0 l/m 0 min 0 min 1,8 UV-I 346 W/m 5,1 km/h (1 Bft)
03.07.2013 15:36 18,7 C 18,4 C 89 % 1009,5 hPa 0,0 l/m 0 min 0 min 1,7 UV-I 327 W/m 10,3 km/h (2 Bft)
03.07.2013 15:38 18,8 C 18,4 C 89 % 1009,5 hPa 0,0 l/m 0 min 0 min 1,4 UV-I 287 W/m 2,6 km/h (1 Bft)
03.07.2013 15:40 18,8 C 18,4 C 89 % 1009,5 hPa 0,0 l/m 0 min 0 min 1,1 UV-I 243 W/m 0,0 km/h (0 Bft)
03.07.2013 15:42 18,8 C 18,4 C 88 % 1009,5 hPa 0,0 l/m 0 min 0 min 1,2 UV-I 258 W/m 0,0 km/h (0 Bft)
03.07.2013 15:44 18,8 C 18,4 C 88 % 1009,5 hPa 0,0 l/m 0 min 0 min 1,1 UV-I 258 W/m 15,4 km/h (3 Bft)
03.07.2013 15:46 18,8 C 18,4 C 88 % 1009,5 hPa 0,0 l/m 0 min 0 min 1,0 UV-I 246 W/m 7,7 km/h (2 Bft)
03.07.2013 15:48 18,8 C 18,4 C 88 % 1009,7 hPa 0,0 l/m 0 min 0 min 0,8 UV-I 220 W/m 10,3 km/h (2 Bft)
03.07.2013 15:50 18,8 C 18,4 C 88 % 1009,7 hPa 0,0 l/m 0 min 0 min 0,7 UV-I 216 W/m 5,1 km/h (1 Bft)
03.07.2013 15:52 18,8 C 17,9 C 89 % 1009,7 hPa 0,0 l/m 0 min 0 min 0,5 UV-I 169 W/m 10,3 km/h (2 Bft)
03.07.2013 15:54 18,7 C 17,9 C 87 % 1009,7 hPa 0,0 l/m 0 min 0 min 0,0 UV-I 134 W/m 10,3 km/h (2 Bft)
03.07.2013 15:56 18,6 C 17,9 C 87 % 1009,7 hPa 0,0 l/m 0 min 0 min 0,0 UV-I 123 W/m 10,3 km/h (2 Bft)
03.07.2013 15:58 18,5 C 17,3 C 87 % 1009,8 hPa 0,0 l/m 0 min 0 min 0,0 UV-I 127 W/m 12,9 km/h (3 Bft)
03.07.2013 16:00 18,4 C 17,3 C 88 % 1009,8 hPa 0,0 l/m 0 min 0 min 0,8 UV-I 220 W/m 5,1 km/h (1 Bft)
03.07.2013 16:02 18,3 C 17,9 C 89 % 1009,7 hPa 0,0 l/m 0 min 0 min 1,1 UV-I 258 W/m 0,0 km/h (0 Bft)
03.07.2013 16:06 18,2 C 17,9 C 90 % 1009,8 hPa 0,0 l/m 0 min 0 min 0,8 UV-I 218 W/m 15,4 km/h (3 Bft)
03.07.2013 16:08 18,2 C 17,9 C 90 % 1009,8 hPa 0,0 l/m 0 min 0 min 0,5 UV-I 195 W/m 2,6 km/h (1 Bft)
03.07.2013 16:10 18,3 C 17,9 C 90 % 1009,9 hPa 0,0 l/m 0 min 0 min 0,0 UV-I 149 W/m 0,0 km/h (0 Bft)
03.07.2013 16:12 18,3 C 17,9 C 90 % 1009,9 hPa 0,0 l/m 0 min 0 min 0,0 UV-I 137 W/m 5,1 km/h (1 Bft)
03.07.2013 16:14 18,3 C 17,9 C 90 % 1010,0 hPa 0,0 l/m 0 min 0 min 0,0 UV-I 146 W/m 5,1 km/h (1 Bft)
03.07.2013 16:16 18,2 C 17,3 C 89 % 1009,9 hPa 0,0 l/m 0 min 0 min 0,0 UV-I 149 W/m 10,3 km/h (2 Bft)
03.07.2013 16:18 18,2 C 17,3 C 89 % 1010,0 hPa 0,0 l/m 0 min 0 min 0,0 UV-I 102 W/m 5,1 km/h (1 Bft)
03.07.2013 16:20 18,3 C 17,3 C 89 % 1010,0 hPa 0,0 l/m 0 min 0 min 0,0 UV-I 90 W/m 0,0 km/h (0 Bft)
03.07.2013 16:22 18,3 C 17,3 C 89 % 1010,1 hPa 0,0 l/m 0 min 0 min 0,0 UV-I 98 W/m 12,9 km/h (3 Bft)
03.07.2013 16:24 18,3 C 17,3 C 89 % 1010,1 hPa 0,0 l/m 0 min 0 min 0,0 UV-I 91 W/m 2,6 km/h (1 Bft)
03.07.2013 16:26 18,3 C 16,8 C 89 % 1010,1 hPa 0,0 l/m 0 min 0 min 0,0 UV-I 86 W/m 5,1 km/h (1 Bft)
03.07.2013 16:28 18,3 C 16,8 C 88 % 1010,1 hPa 0,0 l/m 0 min 0 min 0,0 UV-I 83 W/m 2,6 km/h (1 Bft)
03.07.2013 16:30 18,2 C 16,8 C 88 % 1010,3 hPa 0,0 l/m 0 min 0 min 0,0 UV-I 81 W/m 5,1 km/h (1 Bft)
03.07.2013 16:32 18,2 C 16,8 C 89 % 1010,3 hPa 0,0 l/m 0 min 0 min 0,0 UV-I 86 W/m 2,6 km/h (1 Bft)
03.07.2013 16:34 18,2 C 16,8 C 89 % 1010,3 hPa 0,0 l/m 0 min 0 min 0,0 UV-I 114 W/m 15,4 km/h (3 Bft)
03.07.2013 16:36 18,2 C 16,8 C 89 % 1010,3 hPa 0,0 l/m 0 min 0 min 0,0 UV-I 132 W/m 7,7 km/h (2 Bft)
03.07.2013 16:38 18,1 C 16,8 C 89 % 1010,3 hPa 0,0 l/m 0 min 0 min 0,0 UV-I 144 W/m 2,6 km/h (1 Bft)
03.07.2013 16:40 18,1 C 16,8 C 89 % 1010,3 hPa 0,0 l/m 0 min 0 min 0,5 UV-I 163 W/m 0,0 km/h (0 Bft)
03.07.2013 16:42 18,1 C 16,8 C 89 % 1010,3 hPa 0,0 l/m 0 min 2 min 0,6 UV-I 181 W/m 2,6 km/h (1 Bft)
03.07.2013 16:44 18,2 C 16,8 C 90 % 1010,3 hPa 0,0 l/m 0 min 2 min 0,7 UV-I 202 W/m 5,1 km/h (1 Bft)
03.07.2013 16:46 18,1 C 16,8 C 90 % 1010,4 hPa 0,0 l/m 0 min 2 min 0,8 UV-I 285 W/m 12,9 km/h (3 Bft)
03.07.2013 16:48 18,1 C 16,8 C 90 % 1010,4 hPa 0,0 l/m 0 min 0 min 0,8 UV-I 274 W/m 10,3 km/h (2 Bft)
03.07.2013 16:50 17,9 C 16,8 C 91 % 1010,4 hPa 0,0 l/m 0 min 0 min 0,5 UV-I 220 W/m 5,1 km/h (1 Bft)
03.07.2013 16:52 17,8 C 16,8 C 92 % 1010,4 hPa 0,0 l/m 0 min 0 min 0,0 UV-I 162 W/m 0,0 km/h (0 Bft)
03.07.2013 16:54 17,8 C 16,8 C 92 % 1010,5 hPa 0,0 l/m 0 min 0 min 0,0 UV-I 169 W/m 5,1 km/h (1 Bft)
03.07.2013 16:56 17,8 C 16,8 C 92 % 1010,5 hPa 0,0 l/m 0 min 0 min 0,0 UV-I 120 W/m 2,6 km/h (1 Bft)
03.07.2013 16:58 17,8 C 16,8 C 92 % 1010,5 hPa 0,0 l/m 0 min 0 min 0,0 UV-I 111 W/m 12,9 km/h (3 Bft)
03.07.2013 17:00 17,8 C 16,2 C 92 % 1010,5 hPa 0,0 l/m 0 min 0 min 0,0 UV-I 90 W/m 10,3 km/h (2 Bft)
03.07.2013 17:02 17,7 C 16,2 C 92 % 1010,6 hPa 0,0 l/m 0 min 0 min 0,0 UV-I 90 W/m 5,1 km/h (1 Bft)
03.07.2013 17:06 17,7 C 16,8 C 92 % 1010,6 hPa 0,0 l/m 0 min 0 min 0,0 UV-I 104 W/m 10,3 km/h (2 Bft)
03.07.2013 17:08 17,7 C 16,2 C 92 % 1010,7 hPa 0,0 l/m 0 min 0 min 0,0 UV-I 90 W/m 2,6 km/h (1 Bft)
03.07.2013 17:10 17,7 C 16,2 C 92 % 1010,7 hPa 0,0 l/m 0 min 0 min 0,0 UV-I 91 W/m 5,1 km/h (1 Bft)
03.07.2013 17:12 17,7 C 16,2 C 92 % 1010,7 hPa 0,0 l/m 0 min 0 min 0,0 UV-I 76 W/m 5,1 km/h (1 Bft)
03.07.2013 17:14 17,7 C 16,2 C 92 % 1010,8 hPa 0,0 l/m 0 min 0 min 0,0 UV-I 72 W/m 10,3 km/h (2 Bft)
03.07.2013 17:16 17,7 C 16,2 C 92 % 1010,7 hPa 0,0 l/m 0 min 0 min 0,0 UV-I 97 W/m 10,3 km/h (2 Bft)
03.07.2013 17:18 17,7 C 16,2 C 92 % 1010,7 hPa 0,0 l/m 0 min 0 min 0,0 UV-I 104 W/m 10,3 km/h (2 Bft)
03.07.2013 17:20 17,7 C 16,8 C 92 % 1010,7 hPa 0,0 l/m 0 min 0 min 0,0 UV-I 111 W/m 2,6 km/h (1 Bft)
03.07.2013 17:22 17,7 C 16,8 C 93 % 1010,8 hPa 0,0 l/m 0 min 0 min 0,0 UV-I 132 W/m 5,1 km/h (1 Bft)
03.07.2013 17:24 17,7 C 16,8 C 93 % 1010,8 hPa 0,0 l/m 0 min 0 min 0,0 UV-I 121 W/m 5,1 km/h (1 Bft)
03.07.2013 17:26 17,7 C 16,8 C 92 % 1010,8 hPa 0,0 l/m 0 min 0 min 0,0 UV-I 107 W/m 7,7 km/h (2 Bft)
03.07.2013 17:28 17,7 C 16,8 C 92 % 1010,8 hPa 0,0 l/m 0 min 0 min 0,0 UV-I 95 W/m 0,0 km/h (0 Bft)
03.07.2013 17:30 17,7 C 16,8 C 92 % 1010,8 hPa 0,0 l/m 0 min 0 min 0,0 UV-I 98 W/m 12,9 km/h (3 Bft)
03.07.2013 17:32 17,7 C 16,8 C 92 % 1010,8 hPa 0,0 l/m 0 min 0 min 0,0 UV-I 104 W/m 5,1 km/h (1 Bft)
03.07.2013 17:34 17,7 C 16,8 C 92 % 1010,8 hPa 0,0 l/m 0 min 0 min 0,0 UV-I 98 W/m 0,0 km/h (0 Bft)
03.07.2013 17:36 17,7 C 16,8 C 92 % 1010,8 hPa 0,0 l/m 0 min 0 min 0,0 UV-I 98 W/m 5,1 km/h (1 Bft)
03.07.2013 17:38 17,7 C 16,8 C 93 % 1010,8 hPa 0,0 l/m 0 min 0 min 0,0 UV-I 97 W/m 0,0 km/h (0 Bft)
03.07.2013 17:40 17,7 C 16,8 C 93 % 1010,9 hPa 0,0 l/m 0 min 0 min 0,0 UV-I 84 W/m 5,1 km/h (1 Bft)
03.07.2013 17:42 17,7 C 16,8 C 92 % 1010,9 hPa 0,0 l/m 0 min 0 min 0,0 UV-I 83 W/m 5,1 km/h (1 Bft)
03.07.2013 17:43 17,7 C 16,8 C 92 % 1011,0 hPa 0,0 l/m 0 min 0 min 0,0 UV-I 83 W/m 0,0 km/h (0 Bft)
03.07.2013 17:44 17,7 C 16,8 C 92 % 1010,9 hPa 0,0 l/m 0 min 0 min 0,0 UV-I 77 W/m 2,6 km/h (1 Bft)
03.07.2013 17:45 17,7 C 16,8 C 92 % 1011,0 hPa 0,0 l/m 0 min 0 min 0,0 UV-I 72 W/m 0,0 km/h (0 Bft)
03.07.2013 17:46 17,7 C 16,8 C 92 % 1011,0 hPa 0,0 l/m 0 min 0 min 0,0 UV-I 70 W/m 0,0 km/h (0 Bft)
03.07.2013 17:47 17,7 C 16,8 C 92 % 1011,0 hPa 0,0 l/m 0 min 0 min 0,0 UV-I 65 W/m 0,0 km/h (0 Bft)
03.07.2013 17:48 17,7 C 16,8 C 92 % 1011,0 hPa 0,0 l/m 0 min 0 min 0,0 UV-I 60 W/m 0,0 km/h (0 Bft)
03.07.2013 17:49 17,7 C 16,8 C 92 % 1011,0 hPa 0,0 l/m 0 min 0 min 0,0 UV-I 60 W/m 7,7 km/h (2 Bft)
03.07.2013 17:50 17,7 C 16,8 C 92 % 1011,0 hPa 0,0 l/m 0 min 0 min 0,0 UV-I 65 W/m 0,0 km/h (0 Bft)
03.07.2013 17:51 17,7 C 16,8 C 92 % 1011,0 hPa 0,0 l/m 0 min 0 min 0,0 UV-I 67 W/m 0,0 km/h (0 Bft)
03.07.2013 17:52 17,7 C 16,8 C 92 % 1011,0 hPa 0,0 l/m 0 min 0 min 0,0 UV-I 69 W/m 0,0 km/h (0 Bft)
03.07.2013 17:53 17,7 C 16,8 C 92 % 1010,9 hPa 0,0 l/m 0 min 0 min 0,0 UV-I 70 W/m 2,6 km/h (1 Bft)
03.07.2013 17:56 17,7 C 16,8 C 92 % 1011,0 hPa 0,0 l/m 0 min 0 min 0,0 UV-I 62 W/m 0,0 km/h (0 Bft)
03.07.2013 17:58 17,7 C 16,8 C 92 % 1011,0 hPa 0,0 l/m 0 min 0 min 0,0 UV-I 47 W/m 5,1 km/h (1 Bft)
03.07.2013 18:00 17,7 C 16,8 C 92 % 1011,0 hPa 0,0 l/m 0 min 0 min 0,0 UV-I 40 W/m 5,1 km/h (1 Bft)
03.07.2013 18:02 17,7 C 16,8 C 92 % 1011,0 hPa 0,0 l/m 0 min 0 min 0,0 UV-I 40 W/m 0,0 km/h (0 Bft)
03.07.2013 18:06 17,7 C 16,8 C 92 % 1011,1 hPa 0,0 l/m 0 min 0 min 0,0 UV-I 53 W/m 5,1 km/h (1 Bft)
03.07.2013 18:08 17,7 C 16,8 C 92 % 1011,1 hPa 0,0 l/m 0 min 0 min 0,0 UV-I 56 W/m 0,0 km/h (0 Bft)
03.07.2013 18:10 17,7 C 16,8 C 92 % 1011,1 hPa 0,0 l/m 0 min 0 min 0,0 UV-I 51 W/m 10,3 km/h (2 Bft)
03.07.2013 18:12 17,7 C 16,8 C 92 % 1011,1 hPa 0,0 l/m 0 min 0 min 0,0 UV-I 46 W/m 0,0 km/h (0 Bft)
03.07.2013 18:14 17,7 C 16,8 C 92 % 1011,1 hPa 0,0 l/m 0 min 0 min 0,0 UV-I 39 W/m 0,0 km/h (0 Bft)
03.07.2013 18:16 17,7 C 16,8 C 92 % 1011,2 hPa 0,0 l/m 0 min 0 min 0,0 UV-I 35 W/m 0,0 km/h (0 Bft)
03.07.2013 18:18 17,7 C 16,8 C 92 % 1011,1 hPa 0,0 l/m 0 min 0 min 0,0 UV-I 33 W/m 0,0 km/h (0 Bft)
03.07.2013 18:20 17,7 C 16,2 C 92 % 1011,2 hPa 0,0 l/m 0 min 0 min 0,0 UV-I 44 W/m 0,0 km/h (0 Bft)
03.07.2013 18:22 17,7 C 16,2 C 92 % 1011,2 hPa 0,0 l/m 0 min 0 min 0,0 UV-I 44 W/m 0,0 km/h (0 Bft)
03.07.2013 18:24 17,7 C 16,2 C 92 % 1011,2 hPa 0,0 l/m 0 min 0 min 0,0 UV-I 53 W/m 0,0 km/h (0 Bft)
03.07.2013 18:26 17,7 C 16,2 C 92 % 1011,2 hPa 0,0 l/m 0 min 0 min 0,0 UV-I 81 W/m 7,7 km/h (2 Bft)
03.07.2013 18:28 17,7 C 16,2 C 93 % 1011,3 hPa 0,0 l/m 0 min 0 min 0,0 UV-I 113 W/m 5,1 km/h (1 Bft)
03.07.2013 18:30 17,7 C 16,2 C 93 % 1011,2 hPa 0,0 l/m 0 min 0 min 0,0 UV-I 118 W/m 0,0 km/h (0 Bft)
03.07.2013 18:32 17,7 C 16,8 C 93 % 1011,3 hPa 0,0 l/m 0 min 0 min 0,0 UV-I 118 W/m 0,0 km/h (0 Bft)
03.07.2013 18:34 17,7 C 16,8 C 93 % 1011,3 hPa 0,0 l/m 0 min 0 min 0,0 UV-I 128 W/m 2,6 km/h (1 Bft)
03.07.2013 18:36 17,7 C 16,8 C 93 % 1011,3 hPa 0,0 l/m 0 min 0 min 0,0 UV-I 114 W/m 0,0 km/h (0 Bft)
03.07.2013 18:38 17,7 C 16,8 C 93 % 1011,3 hPa 0,0 l/m 0 min 0 min 0,0 UV-I 114 W/m 0,0 km/h (0 Bft)
03.07.2013 18:40 17,8 C 16,8 C 93 % 1011,3 hPa 0,0 l/m 0 min 0 min 0,0 UV-I 125 W/m 0,0 km/h (0 Bft)
03.07.2013 18:42 17,8 C 17,3 C 93 % 1011,3 hPa 0,0 l/m 0 min 0 min 0,0 UV-I 146 W/m 0,0 km/h (0 Bft)
03.07.2013 18:44 17,8 C 17,3 C 93 % 1011,3 hPa 0,0 l/m 0 min 0 min 0,0 UV-I 158 W/m 2,6 km/h (1 Bft)
03.07.2013 18:46 17,8 C 17,3 C 93 % 1011,4 hPa 0,0 l/m 0 min 0 min 0,0 UV-I 160 W/m 0,0 km/h (0 Bft)
03.07.2013 18:48 17,8 C 17,3 C 93 % 1011,4 hPa 0,0 l/m 0 min 0 min 0,0 UV-I 148 W/m 0,0 km/h (0 Bft)
03.07.2013 18:50 17,8 C 17,3 C 93 % 1011,5 hPa 0,0 l/m 0 min 0 min 0,0 UV-I 142 W/m 7,7 km/h (2 Bft)
03.07.2013 18:52 17,9 C 17,9 C 93 % 1011,5 hPa 0,0 l/m 0 min 0 min 0,0 UV-I 169 W/m 7,7 km/h (2 Bft)
03.07.2013 18:54 17,9 C 17,3 C 93 % 1011,5 hPa 0,0 l/m 0 min 0 min 0,0 UV-I 134 W/m 5,1 km/h (1 Bft)
03.07.2013 18:56 17,9 C 17,3 C 93 % 1011,5 hPa 0,0 l/m 0 min 0 min 0,0 UV-I 81 W/m 5,1 km/h (1 Bft)
03.07.2013 18:58 17,9 C 17,3 C 93 % 1011,5 hPa 0,0 l/m 0 min 0 min 0,0 UV-I 84 W/m 0,0 km/h (0 Bft)
03.07.2013 19:00 17,9 C 17,3 C 93 % 1011,6 hPa 0,0 l/m 0 min 0 min 0,0 UV-I 81 W/m 7,7 km/h (2 Bft)
03.07.2013 19:02 18,0 C 17,3 C 93 % 1011,6 hPa 0,0 l/m 0 min 0 min 0,0 UV-I 69 W/m 7,7 km/h (2 Bft)
03.07.2013 19:06 18,0 C 17,3 C 93 % 1011,6 hPa 0,0 l/m 0 min 0 min 0,0 UV-I 67 W/m 10,3 km/h (2 Bft)
03.07.2013 19:08 18,0 C 17,3 C 93 % 1011,6 hPa 0,0 l/m 0 min 0 min 0,0 UV-I 63 W/m 0,0 km/h (0 Bft)
03.07.2013 19:10 18,0 C 17,3 C 93 % 1011,7 hPa 0,0 l/m 0 min 2 min 0,0 UV-I 91 W/m 2,6 km/h (1 Bft)
03.07.2013 19:12 18,0 C 17,3 C 93 % 1011,6 hPa 0,0 l/m 0 min 0 min 0,0 UV-I 156 W/m 5,1 km/h (1 Bft)
03.07.2013 19:14 18,0 C 17,3 C 93 % 1011,7 hPa 0,0 l/m 0 min 0 min 0,0 UV-I 174 W/m 0,0 km/h (0 Bft)
03.07.2013 19:16 18,1 C 17,9 C 93 % 1011,7 hPa 0,0 l/m 0 min 0 min 0,0 UV-I 179 W/m 10,3 km/h (2 Bft)
03.07.2013 19:18 18,1 C 17,9 C 93 % 1011,8 hPa 0,0 l/m 0 min 0 min 0,0 UV-I 158 W/m 0,0 km/h (0 Bft)
03.07.2013 19:20 18,1 C 17,9 C 93 % 1011,7 hPa 0,0 l/m 0 min 0 min 0,0 UV-I 153 W/m 0,0 km/h (0 Bft)
03.07.2013 19:22 18,1 C 17,9 C 93 % 1011,8 hPa 0,0 l/m 0 min 0 min 0,0 UV-I 148 W/m 5,1 km/h (1 Bft)
03.07.2013 19:24 18,2 C 17,9 C 93 % 1011,9 hPa 0,0 l/m 0 min 0 min 0,0 UV-I 158 W/m 0,0 km/h (0 Bft)
03.07.2013 19:26 18,2 C 17,9 C 93 % 1011,9 hPa 0,0 l/m 0 min 0 min 0,0 UV-I 144 W/m 2,6 km/h (1 Bft)
03.07.2013 19:28 18,2 C 17,9 C 93 % 1011,9 hPa 0,0 l/m 0 min 0 min 0,0 UV-I 120 W/m 0,0 km/h (0 Bft)
03.07.2013 19:30 18,3 C 17,9 C 93 % 1011,9 hPa 0,0 l/m 0 min 0 min 0,0 UV-I 109 W/m 7,7 km/h (2 Bft)
03.07.2013 19:32 18,3 C 17,9 C 93 % 1011,9 hPa 0,0 l/m 0 min 0 min 0,0 UV-I 107 W/m 7,7 km/h (2 Bft)
03.07.2013 19:34 18,3 C 17,9 C 92 % 1012,0 hPa 0,0 l/m 0 min 0 min 0,0 UV-I 107 W/m 7,7 km/h (2 Bft)
03.07.2013 19:36 18,2 C 17,9 C 92 % 1012,0 hPa 0,0 l/m 0 min 0 min 0,0 UV-I 102 W/m 0,0 km/h (0 Bft)
03.07.2013 19:38 18,3 C 17,9 C 92 % 1012,0 hPa 0,0 l/m 0 min 0 min 0,0 UV-I 100 W/m 2,6 km/h (1 Bft)
03.07.2013 19:40 18,3 C 17,9 C 92 % 1012,0 hPa 0,0 l/m 0 min 0 min 0,0 UV-I 100 W/m 7,7 km/h (2 Bft)
03.07.2013 19:42 18,3 C 17,9 C 92 % 1012,1 hPa 0,0 l/m 0 min 0 min 0,0 UV-I 116 W/m 0,0 km/h (0 Bft)
03.07.2013 19:44 18,3 C 17,9 C 92 % 1012,1 hPa 0,0 l/m 0 min 0 min 0,0 UV-I 111 W/m 2,6 km/h (1 Bft)
03.07.2013 19:46 18,3 C 17,9 C 92 % 1012,1 hPa 0,0 l/m 0 min 0 min 0,0 UV-I 102 W/m 0,0 km/h (0 Bft)
03.07.2013 19:48 18,3 C 17,9 C 92 % 1012,1 hPa 0,0 l/m 0 min 0 min 0,0 UV-I 86 W/m 0,0 km/h (0 Bft)
03.07.2013 19:50 18,3 C 17,9 C 92 % 1012,1 hPa 0,0 l/m 0 min 0 min 0,0 UV-I 88 W/m 0,0 km/h (0 Bft)
03.07.2013 19:52 18,3 C 17,9 C 91 % 1012,2 hPa 0,0 l/m 0 min 0 min 0,0 UV-I 86 W/m 0,0 km/h (0 Bft)
03.07.2013 19:54 18,4 C 17,9 C 92 % 1012,2 hPa 0,0 l/m 0 min 0 min 0,0 UV-I 81 W/m 0,0 km/h (0 Bft)
03.07.2013 19:56 18,4 C 17,9 C 91 % 1012,2 hPa 0,0 l/m 0 min 0 min 0,0 UV-I 70 W/m 0,0 km/h (0 Bft)
03.07.2013 19:58 18,4 C 17,9 C 91 % 1012,3 hPa 0,0 l/m 0 min 0 min 0,0 UV-I 58 W/m 0,0 km/h (0 Bft)
03.07.2013 20:00 18,4 C 17,3 C 91 % 1012,3 hPa 0,0 l/m 0 min 0 min 0,0 UV-I 56 W/m 0,0 km/h (0 Bft)
03.07.2013 20:02 18,4 C 17,3 C 91 % 1012,3 hPa 0,0 l/m 0 min 0 min 0,0 UV-I 60 W/m 2,6 km/h (1 Bft)
03.07.2013 20:06 18,4 C 17,3 C 91 % 1012,3 hPa 0,0 l/m 0 min 0 min 0,0 UV-I 56 W/m 2,6 km/h (1 Bft)
03.07.2013 20:08 18,4 C 17,3 C 91 % 1012,4 hPa 0,0 l/m 0 min 0 min 0,0 UV-I 54 W/m 0,0 km/h (0 Bft)
03.07.2013 20:10 18,4 C 17,3 C 91 % 1012,4 hPa 0,0 l/m 0 min 0 min 0,0 UV-I 54 W/m 2,6 km/h (1 Bft)
03.07.2013 20:12 18,3 C 17,3 C 91 % 1012,4 hPa 0,0 l/m 0 min 0 min 0,0 UV-I 51 W/m 0,0 km/h (0 Bft)
03.07.2013 20:14 18,3 C 17,3 C 91 % 1012,5 hPa 0,0 l/m 0 min 0 min 0,0 UV-I 46 W/m 0,0 km/h (0 Bft)
03.07.2013 20:16 18,3 C 16,8 C 91 % 1012,5 hPa 0,0 l/m 0 min 0 min 0,0 UV-I 44 W/m 0,0 km/h (0 Bft)
03.07.2013 20:18 18,3 C 16,8 C 91 % 1012,5 hPa 0,0 l/m 0 min 0 min 0,0 UV-I 37 W/m 0,0 km/h (0 Bft)
03.07.2013 20:20 18,3 C 16,8 C 91 % 1012,6 hPa 0,0 l/m 0 min 0 min 0,0 UV-I 33 W/m 0,0 km/h (0 Bft)
03.07.2013 20:22 18,3 C 16,8 C 91 % 1012,6 hPa 0,0 l/m 0 min 0 min 0,0 UV-I 32 W/m 0,0 km/h (0 Bft)
03.07.2013 20:24 18,3 C 16,8 C 91 % 1012,7 hPa 0,0 l/m 0 min 0 min 0,0 UV-I 28 W/m 0,0 km/h (0 Bft)
03.07.2013 20:26 18,3 C 16,8 C 91 % 1012,7 hPa 0,0 l/m 0 min 0 min 0,0 UV-I 26 W/m 0,0 km/h (0 Bft)
03.07.2013 20:28 18,3 C 16,8 C 91 % 1012,8 hPa 0,0 l/m 0 min 0 min 0,0 UV-I 23 W/m 0,0 km/h (0 Bft)
03.07.2013 20:30 18,3 C 16,8 C 91 % 1012,8 hPa 0,0 l/m 0 min 0 min 0,0 UV-I 21 W/m 0,0 km/h (0 Bft)
03.07.2013 20:32 18,3 C 16,8 C 91 % 1012,8 hPa 0,0 l/m 0 min 0 min 0,0 UV-I 23 W/m 0,0 km/h (0 Bft)
03.07.2013 20:34 18,3 C 16,8 C 91 % 1012,8 hPa 0,0 l/m 0 min 0 min 0,0 UV-I 18 W/m 0,0 km/h (0 Bft)
03.07.2013 20:36 18,2 C 16,8 C 91 % 1012,9 hPa 0,0 l/m 0 min 0 min 0,0 UV-I 21 W/m 0,0 km/h (0 Bft)
03.07.2013 20:38 18,2 C 16,8 C 91 % 1012,9 hPa 0,0 l/m 0 min 0 min 0,0 UV-I 19 W/m 0,0 km/h (0 Bft)
03.07.2013 20:40 18,2 C 16,8 C 91 % 1012,9 hPa 0,0 l/m 0 min 0 min 0,0 UV-I 21 W/m 0,0 km/h (0 Bft)
03.07.2013 20:42 18,2 C 16,8 C 91 % 1012,9 hPa 0,0 l/m 0 min 0 min 0,0 UV-I 21 W/m 0,0 km/h (0 Bft)
03.07.2013 20:44 18,2 C 16,2 C 91 % 1012,9 hPa 0,0 l/m 0 min 0 min 0,0 UV-I 21 W/m 0,0 km/h (0 Bft)
03.07.2013 20:46 18,2 C 16,2 C 91 % 1013,0 hPa 0,0 l/m 0 min 0 min 0,0 UV-I 19 W/m 0,0 km/h (0 Bft)
03.07.2013 20:48 18,2 C 16,2 C 91 % 1013,0 hPa 0,0 l/m 0 min 0 min 0,0 UV-I 18 W/m 0,0 km/h (0 Bft)
03.07.2013 20:50 18,2 C 16,2 C 91 % 1013,0 hPa 0,0 l/m 0 min 0 min 0,0 UV-I 14 W/m 0,0 km/h (0 Bft)
03.07.2013 20:52 18,1 C 16,2 C 91 % 1013,0 hPa 0,0 l/m 0 min 0 min 0,0 UV-I 12 W/m 0,0 km/h (0 Bft)
03.07.2013 20:54 18,1 C 16,2 C 91 % 1013,0 hPa 0,0 l/m 0 min 0 min 0,0 UV-I 11 W/m 0,0 km/h (0 Bft)
03.07.2013 20:56 18,1 C 16,2 C 91 % 1013,0 hPa 0,0 l/m 0 min 2 min 0,0 UV-I 11 W/m 0,0 km/h (0 Bft)
03.07.2013 20:58 18,1 C 16,2 C 91 % 1013,1 hPa 0,0 l/m 0 min 2 min 0,0 UV-I 12 W/m 0,0 km/h (0 Bft)
03.07.2013 21:00 18,1 C 16,2 C 91 % 1013,1 hPa 0,0 l/m 0 min 0 min 0,0 UV-I 12 W/m 0,0 km/h (0 Bft)
03.07.2013 21:02 18,1 C 16,2 C 91 % 1013,1 hPa 0,0 l/m 0 min 0 min 0,0 UV-I 12 W/m 0,0 km/h (0 Bft)
03.07.2013 21:06 18,0 C 16,2 C 91 % 1013,2 hPa 0,0 l/m 0 min 0 min 0,0 UV-I 12 W/m 0,0 km/h (0 Bft)
03.07.2013 21:08 18,0 C 16,2 C 91 % 1013,2 hPa 0,0 l/m 0 min 0 min 0,0 UV-I 11 W/m 0,0 km/h (0 Bft)
03.07.2013 21:10 18,0 C 16,2 C 91 % 1013,2 hPa 0,0 l/m 0 min 0 min 0,0 UV-I 11 W/m 0,0 km/h (0 Bft)
03.07.2013 21:12 18,0 C 15,7 C 91 % 1013,2 hPa 0,0 l/m 0 min 0 min 0,0 UV-I 11 W/m 0,0 km/h (0 Bft)
03.07.2013 21:14 17,9 C 15,7 C 91 % 1013,2 hPa 0,0 l/m 0 min 0 min 0,0 UV-I 11 W/m 0,0 km/h (0 Bft)
03.07.2013 21:16 17,9 C 15,7 C 92 % 1013,2 hPa 0,0 l/m 0 min 0 min 0,0 UV-I 9 W/m 0,0 km/h (0 Bft)
03.07.2013 21:18 17,9 C 15,7 C 92 % 1013,2 hPa 0,0 l/m 0 min 0 min 0,0 UV-I 9 W/m 0,0 km/h (0 Bft)
03.07.2013 21:20 17,9 C 15,7 C 92 % 1013,2 hPa 0,0 l/m 0 min 0 min 0,0 UV-I 7 W/m 0,0 km/h (0 Bft)
03.07.2013 21:22 17,9 C 15,7 C 92 % 1013,3 hPa 0,0 l/m 0 min 0 min 0,0 UV-I 7 W/m 0,0 km/h (0 Bft)
03.07.2013 21:24 17,9 C 15,7 C 92 % 1013,3 hPa 0,0 l/m 0 min 0 min 0,0 UV-I 9 W/m 0,0 km/h (0 Bft)
03.07.2013 21:26 17,9 C 15,7 C 92 % 1013,3 hPa 0,0 l/m 0 min 0 min 0,0 UV-I 9 W/m 0,0 km/h (0 Bft)
03.07.2013 21:28 17,8 C 15,7 C 92 % 1013,4 hPa 0,0 l/m 0 min 0 min 0,0 UV-I 7 W/m 0,0 km/h (0 Bft)
03.07.2013 21:30 17,8 C 15,7 C 92 % 1013,4 hPa 0,0 l/m 0 min 0 min 0,0 UV-I 7 W/m 0,0 km/h (0 Bft)
03.07.2013 21:32 17,8 C 15,7 C 92 % 1013,4 hPa 0,0 l/m 0 min 0 min 0,0 UV-I 7 W/m 0,0 km/h (0 Bft)
03.07.2013 21:34 17,8 C 15,7 C 92 % 1013,5 hPa 0,0 l/m 0 min 0 min 0,0 UV-I 7 W/m 0,0 km/h (0 Bft)
03.07.2013 21:36 17,8 C 15,7 C 92 % 1013,5 hPa 0,0 l/m 0 min 0 min 0,0 UV-I 7 W/m 0,0 km/h (0 Bft)
03.07.2013 21:38 17,8 C 15,7 C 92 % 1013,6 hPa 0,0 l/m 0 min 0 min 0,0 UV-I 5 W/m 0,0 km/h (0 Bft)
03.07.2013 21:40 17,8 C 15,7 C 92 % 1013,6 hPa 0,0 l/m 0 min 0 min 0,0 UV-I 5 W/m 0,0 km/h (0 Bft)
03.07.2013 21:42 17,8 C 15,7 C 92 % 1013,7 hPa 0,0 l/m 0 min 0 min 0,0 UV-I 5 W/m 0,0 km/h (0 Bft)
03.07.2013 21:44 17,7 C 15,7 C 92 % 1013,7 hPa 0,0 l/m 0 min 0 min 0,0 UV-I 0 W/m 0,0 km/h (0 Bft)
03.07.2013 21:46 17,7 C 15,7 C 92 % 1013,7 hPa 0,0 l/m 0 min 0 min 0,0 UV-I 0 W/m 0,0 km/h (0 Bft)
03.07.2013 21:48 17,7 C 15,7 C 92 % 1013,7 hPa 0,0 l/m 0 min 0 min 0,0 UV-I 0 W/m 0,0 km/h (0 Bft)
03.07.2013 21:50 17,7 C 15,7 C 92 % 1013,8 hPa 0,0 l/m 0 min 0 min 0,0 UV-I 0 W/m 0,0 km/h (0 Bft)
03.07.2013 21:52 17,7 C 15,7 C 92 % 1013,9 hPa 0,0 l/m 0 min 0 min 0,0 UV-I 0 W/m 0,0 km/h (0 Bft)
03.07.2013 21:54 17,7 C 15,7 C 92 % 1013,9 hPa 0,0 l/m 0 min 0 min 0,0 UV-I 0 W/m 0,0 km/h (0 Bft)
03.07.2013 21:56 17,7 C 15,7 C 92 % 1014,0 hPa 0,0 l/m 0 min 0 min 0,0 UV-I 0 W/m 0,0 km/h (0 Bft)
03.07.2013 21:58 17,6 C 15,7 C 92 % 1014,0 hPa 0,0 l/m 0 min 0 min 0,0 UV-I 0 W/m 0,0 km/h (0 Bft)
03.07.2013 22:00 17,6 C 15,7 C 92 % 1014,0 hPa 0,0 l/m 0 min 0 min 0,0 UV-I 0 W/m 0,0 km/h (0 Bft)
03.07.2013 22:02 17,6 C 15,7 C 93 % 1014,1 hPa 0,0 l/m 0 min 0 min 0,0 UV-I 0 W/m 0,0 km/h (0 Bft)
03.07.2013 22:06 17,6 C 15,7 C 93 % 1014,1 hPa 0,0 l/m 0 min 0 min 0,0 UV-I 0 W/m 0,0 km/h (0 Bft)
03.07.2013 22:08 17,6 C 15,7 C 93 % 1014,1 hPa 0,0 l/m 0 min 0 min 0,0 UV-I 0 W/m 0,0 km/h (0 Bft)
03.07.2013 22:10 17,6 C 15,7 C 93 % 1014,3 hPa 0,0 l/m 0 min 0 min 0,0 UV-I 0 W/m 0,0 km/h (0 Bft)
03.07.2013 22:12 17,5 C 15,7 C 93 % 1014,3 hPa 0,0 l/m 0 min 0 min 0,0 UV-I 0 W/m 0,0 km/h (0 Bft)
03.07.2013 22:14 17,5 C 15,7 C 93 % 1014,4 hPa 0,0 l/m 0 min 0 min 0,0 UV-I 0 W/m 0,0 km/h (0 Bft)
03.07.2013 22:16 17,5 C 15,7 C 93 % 1014,4 hPa 0,0 l/m 0 min 0 min 0,0 UV-I 0 W/m 0,0 km/h (0 Bft)
03.07.2013 22:18 17,4 C 15,7 C 93 % 1014,4 hPa 0,0 l/m 0 min 0 min 0,0 UV-I 0 W/m 0,0 km/h (0 Bft)
03.07.2013 22:20 17,4 C 15,7 C 93 % 1014,4 hPa 0,0 l/m 0 min 0 min 0,0 UV-I 0 W/m 0,0 km/h (0 Bft)
03.07.2013 22:22 17,4 C 15,7 C 93 % 1014,5 hPa 0,0 l/m 0 min 0 min 0,0 UV-I 0 W/m 0,0 km/h (0 Bft)
03.07.2013 22:24 17,4 C 15,7 C 93 % 1014,5 hPa 0,0 l/m 0 min 0 min 0,0 UV-I 0 W/m 0,0 km/h (0 Bft)
03.07.2013 22:26 17,4 C 15,7 C 93 % 1014,6 hPa 0,0 l/m 0 min 0 min 0,0 UV-I 0 W/m 0,0 km/h (0 Bft)
03.07.2013 22:28 17,4 C 15,7 C 93 % 1014,6 hPa 0,0 l/m 0 min 0 min 0,0 UV-I 0 W/m 0,0 km/h (0 Bft)
03.07.2013 22:30 17,4 C 15,7 C 93 % 1014,6 hPa 0,0 l/m 0 min 0 min 0,0 UV-I 0 W/m 0,0 km/h (0 Bft)
03.07.2013 22:32 17,3 C 15,7 C 93 % 1014,5 hPa 0,0 l/m 0 min 0 min 0,0 UV-I 0 W/m 0,0 km/h (0 Bft)
03.07.2013 22:34 17,3 C 15,7 C 93 % 1014,6 hPa 0,0 l/m 0 min 0 min 0,0 UV-I 0 W/m 0,0 km/h (0 Bft)
03.07.2013 22:36 17,3 C 15,7 C 93 % 1014,6 hPa 0,0 l/m 0 min 0 min 0,0 UV-I 0 W/m 0,0 km/h (0 Bft)
03.07.2013 22:38 17,3 C 15,7 C 93 % 1014,6 hPa 0,0 l/m 0 min 0 min 0,0 UV-I 0 W/m 0,0 km/h (0 Bft)
03.07.2013 22:40 17,3 C 15,7 C 93 % 1014,6 hPa 0,0 l/m 0 min 0 min 0,0 UV-I 0 W/m 0,0 km/h (0 Bft)
03.07.2013 22:42 17,3 C 15,7 C 93 % 1014,6 hPa 0,0 l/m 0 min 0 min 0,0 UV-I 0 W/m 0,0 km/h (0 Bft)
03.07.2013 22:44 17,3 C 15,7 C 93 % 1014,7 hPa 0,0 l/m 0 min 0 min 0,0 UV-I 0 W/m 0,0 km/h (0 Bft)
03.07.2013 22:46 17,3 C 15,7 C 93 % 1014,7 hPa 0,0 l/m 0 min 0 min 0,0 UV-I 0 W/m 0,0 km/h (0 Bft)
03.07.2013 22:48 17,3 C 15,7 C 94 % 1014,7 hPa 0,0 l/m 0 min 0 min 0,0 UV-I 0 W/m 0,0 km/h (0 Bft)
03.07.2013 22:50 17,3 C 15,7 C 94 % 1014,7 hPa 0,0 l/m 0 min 0 min 0,0 UV-I 0 W/m 0,0 km/h (0 Bft)
03.07.2013 22:52 17,2 C 15,7 C 94 % 1014,7 hPa 0,0 l/m 0 min 0 min 0,0 UV-I 0 W/m 0,0 km/h (0 Bft)
03.07.2013 22:54 17,2 C 15,7 C 94 % 1014,7 hPa 0,0 l/m 0 min 0 min 0,0 UV-I 0 W/m 0,0 km/h (0 Bft)
03.07.2013 22:56 17,2 C 15,7 C 94 % 1014,7 hPa 0,0 l/m 0 min 0 min 0,0 UV-I 0 W/m 0,0 km/h (0 Bft)
03.07.2013 22:58 17,2 C 15,7 C 94 % 1014,8 hPa 0,0 l/m 0 min 0 min 0,0 UV-I 0 W/m 0,0 km/h (0 Bft)
03.07.2013 23:00 17,2 C 15,7 C 94 % 1014,8 hPa 0,0 l/m 0 min 0 min 0,0 UV-I 0 W/m 0,0 km/h (0 Bft)
03.07.2013 23:02 17,2 C 15,7 C 94 % 1014,7 hPa 0,0 l/m 0 min 0 min 0,0 UV-I 0 W/m 0,0 km/h (0 Bft)
03.07.2013 23:06 17,2 C 15,7 C 94 % 1014,8 hPa 0,0 l/m 0 min 0 min 0,0 UV-I 0 W/m 5,1 km/h (1 Bft)
03.07.2013 23:08 17,2 C 15,7 C 94 % 1014,8 hPa 0,0 l/m 0 min 0 min 0,0 UV-I 0 W/m 0,0 km/h (0 Bft)
03.07.2013 23:10 17,2 C 15,7 C 94 % 1014,9 hPa 0,0 l/m 0 min 0 min 0,0 UV-I 0 W/m 0,0 km/h (0 Bft)
03.07.2013 23:12 17,1 C 15,7 C 94 % 1014,9 hPa 0,0 l/m 0 min 0 min 0,0 UV-I 0 W/m 0,0 km/h (0 Bft)
03.07.2013 23:14 17,1 C 15,7 C 94 % 1014,9 hPa 0,0 l/m 0 min 0 min 0,0 UV-I 0 W/m 0,0 km/h (0 Bft)
03.07.2013 23:16 17,1 C 15,7 C 94 % 1014,9 hPa 0,0 l/m 0 min 0 min 0,0 UV-I 0 W/m 0,0 km/h (0 Bft)
03.07.2013 23:18 17,1 C 15,7 C 94 % 1014,9 hPa 0,0 l/m 0 min 0 min 0,0 UV-I 0 W/m 0,0 km/h (0 Bft)
03.07.2013 23:20 17,1 C 15,7 C 94 % 1014,9 hPa 0,0 l/m 0 min 0 min 0,0 UV-I 0 W/m 0,0 km/h (0 Bft)
03.07.2013 23:22 17,1 C 15,7 C 94 % 1015,0 hPa 0,0 l/m 0 min 0 min 0,0 UV-I 0 W/m 7,7 km/h (2 Bft)
03.07.2013 23:24 17,0 C 15,7 C 94 % 1015,0 hPa 0,0 l/m 0 min 0 min 0,0 UV-I 0 W/m 7,7 km/h (2 Bft)
03.07.2013 23:26 17,0 C 15,7 C 94 % 1015,0 hPa 0,0 l/m 0 min 0 min 0,0 UV-I 0 W/m 5,1 km/h (1 Bft)
03.07.2013 23:28 16,9 C 15,7 C 94 % 1015,0 hPa 0,0 l/m 0 min 0 min 0,0 UV-I 0 W/m 0,0 km/h (0 Bft)
03.07.2013 23:30 16,9 C 15,7 C 94 % 1015,0 hPa 0,0 l/m 0 min 0 min 0,0 UV-I 0 W/m 5,1 km/h (1 Bft)
03.07.2013 23:32 16,9 C 15,7 C 94 % 1015,0 hPa 0,0 l/m 0 min 0 min 0,0 UV-I 0 W/m 0,0 km/h (0 Bft)
03.07.2013 23:34 16,9 C 15,1 C 94 % 1015,0 hPa 0,0 l/m 0 min 0 min 0,0 UV-I 0 W/m 0,0 km/h (0 Bft)
03.07.2013 23:36 16,8 C 15,1 C 94 % 1015,0 hPa 0,0 l/m 0 min 0 min 0,0 UV-I 0 W/m 0,0 km/h (0 Bft)
03.07.2013 23:38 16,8 C 15,1 C 94 % 1015,1 hPa 0,0 l/m 0 min 0 min 0,0 UV-I 0 W/m 0,0 km/h (0 Bft)
03.07.2013 23:40 16,8 C 15,1 C 93 % 1015,1 hPa 0,0 l/m 0 min 0 min 0,0 UV-I 0 W/m 0,0 km/h (0 Bft)
03.07.2013 23:42 16,8 C 15,1 C 93 % 1015,1 hPa 0,0 l/m 0 min 0 min 0,0 UV-I 0 W/m 0,0 km/h (0 Bft)
03.07.2013 23:44 16,8 C 15,1 C 93 % 1015,2 hPa 0,0 l/m 0 min 0 min 0,0 UV-I 0 W/m 0,0 km/h (0 Bft)
03.07.2013 23:46 16,7 C 14,6 C 93 % 1015,2 hPa 0,0 l/m 0 min 0 min 0,0 UV-I 0 W/m 0,0 km/h (0 Bft)
03.07.2013 23:48 16,7 C 14,6 C 93 % 1015,1 hPa 0,0 l/m 0 min 0 min 0,0 UV-I 0 W/m 0,0 km/h (0 Bft)
03.07.2013 23:50 16,7 C 14,6 C 93 % 1015,2 hPa 0,0 l/m 0 min 0 min 0,0 UV-I 0 W/m 0,0 km/h (0 Bft)
03.07.2013 23:52 16,7 C 14,6 C 93 % 1015,2 hPa 0,0 l/m 0 min 0 min 0,0 UV-I 0 W/m 0,0 km/h (0 Bft)
03.07.2013 23:54 16,7 C 14,6 C 93 % 1015,2 hPa 0,0 l/m 0 min 0 min 0,0 UV-I 0 W/m 0,0 km/h (0 Bft)
03.07.2013 23:56 16,6 C 14,0 C 93 % 1015,2 hPa 0,0 l/m 0 min 0 min 0,0 UV-I 0 W/m 0,0 km/h (0 Bft)
03.07.2013 23:58 16,6 C 14,0 C 93 % 1015,3 hPa 0,0 l/m 0 min 0 min 0,0 UV-I 0 W/m 0,0 km/h (0 Bft)
_ Min-Zeit 23:56 23:56 00:00 05:54 - - - - - 00:00
Minimum _ 16,6 C 14,0 C 74 % 1005,6 hPa - - - - - 0,0 km/h (0 Bft)
_ Max-Zeit 15:24 15:18 09:06 23:58 07:18 14:42 01:54 15:20 15:22 12:56
Maximum _ 18,9 C 19,0 C 97 % 1015,3 hPa 0,4 l/m 2 min 2 min 4,3 UV-I 796 W/m 18,0 km/h
SW (3 Bft)
Durchschnitt _ 17,7 C 16,4 C 91 % 1009,0 hPa #7,8 l/m #14 min. #7:32 h 1,2 UV-I 116 W/m 2,7 km/h (1 Bft)
© 2013 W. Hausmann